| time (UTC) | temp F | wind direction | speed MPH | gust MPH | rain 1hr in | rain 24hr in | rain mn in | humidity % | barometer mb |
| 20260901102907 | 89 | 36 | 3.0 | 12.0 | 0.00 | 0.00 | 0.00 | 47 | 1015.3 |
| 20260901102703 | 89 | 49 | 6.0 | 12.0 | 0.00 | 0.00 | 0.00 | 47 | 1015.3 |
| 20260901102606 | 89 | 69 | 8.0 | 12.0 | 0.00 | 0.00 | 0.00 | 47 | 1015.3 |
| 20260901102504 | 89 | 52 | 3.0 | 12.0 | 0.00 | 0.00 | 0.00 | 46 | 1015.3 |
| 20260901102404 | 89 | 47 | 8.0 | 11.0 | 0.00 | 0.00 | 0.00 | 47 | 1015.3 |
| 20260901102306 | 89 | 22 | 7.0 | 11.0 | 0.00 | 0.00 | 0.00 | 46 | 1015.3 |
| 20260901102007 | 90 | 355 | 10.0 | 10.0 | 0.00 | 0.00 | 0.00 | 48 | 1015.3 |
| 20260901101904 | 90 | 355 | 6.0 | 9.0 | 0.00 | 0.00 | 0.00 | 48 | 1015.3 |
| 20260901101803 | 89 | 360 | 8.0 | 9.0 | 0.00 | 0.00 | 0.00 | 47 | 1015.3 |
| 20260901101706 | 89 | 346 | 5.0 | 9.0 | 0.00 | 0.00 | 0.00 | 46 | 1015.4 |
| 20260901101604 | 89 | 35 | 7.0 | 8.0 | 0.00 | 0.00 | 0.00 | 46 | 1015.3 |
| 20260901101505 | 89 | 38 | 2.0 | 10.0 | 0.00 | 0.00 | 0.00 | 47 | 1015.4 |
| 20260901101407 | 89 | 44 | 3.0 | 10.0 | 0.00 | 0.00 | 0.00 | 48 | 1015.4 |
| 20260901101204 | 89 | 68 | 4.0 | 10.0 | 0.00 | 0.00 | 0.00 | 47 | 1015.4 |
| 20260901101106 | 89 | 52 | 4.0 | 10.0 | 0.00 | 0.00 | 0.00 | 47 | 1015.4 |
| 20260901101005 | 89 | 5 | 3.0 | 10.0 | 0.00 | 0.00 | 0.00 | 47 | 1015.4 |
| 20260901100904 | 89 | 91 | 5.0 | 10.0 | 0.00 | 0.00 | 0.00 | 47 | 1015.4 |
| 20260901100806 | 89 | 62 | 8.0 | 10.0 | 0.00 | 0.00 | 0.00 | 46 | 1015.4 |
| 20260901100604 | 90 | 29 | 6.0 | 10.0 | 0.00 | 0.00 | 0.00 | 47 | 1015.4 |
| 20260901100507 | 89 | 38 | 6.0 | 9.0 | 0.00 | 0.00 | 0.00 | 47 | 1015.4 |
| 20260901100403 | 89 | 78 | 2.0 | 9.0 | 0.00 | 0.00 | 0.00 | 47 | 1015.5 |
| 20260901100304 | 89 | 50 | 3.0 | 9.0 | 0.00 | 0.00 | 0.00 | 48 | 1015.4 |
| 20260901100207 | 89 | 78 | 5.0 | 9.0 | 0.00 | 0.00 | 0.00 | 48 | 1015.5 |
| 20260901100119 | 89 | 51 | 3.0 | 6.0 | 0.00 | 0.00 | 0.00 | 49 | 1015.5 |
| 20260901100006 | 89 | 42 | 4.0 | 6.0 | 0.00 | 0.00 | 0.00 | 48 | 1015.5 |
| 20260901095907 | 89 | 38 | 2.0 | 6.0 | 0.00 | 0.00 | 0.00 | 47 | 1015.5 |
| 20260901095703 | 89 | 17 | 1.0 | 7.0 | 0.00 | 0.00 | 0.00 | 47 | 1015.5 |
| 20260901095608 | 89 | 17 | 1.0 | 7.0 | 0.00 | 0.00 | 0.00 | 48 | 1015.5 |
| 20260901095403 | 88 | 57 | 3.0 | 7.0 | 0.00 | 0.00 | 0.00 | 48 | 1015.5 |
| 20260901095306 | 88 | 38 | 5.0 | 7.0 | 0.00 | 0.00 | 0.00 | 49 | 1015.6 |
| 20260901095203 | 88 | 22 | 4.0 | 7.0 | 0.00 | 0.00 | 0.00 | 49 | 1015.5 |
| 20260901095103 | 88 | 46 | 2.0 | 9.0 | 0.00 | 0.00 | 0.00 | 48 | 1015.6 |
| 20260901095009 | 88 | 46 | 1.0 | 9.0 | 0.00 | 0.00 | 0.00 | 47 | 1015.6 |
| 20260901094904 | 88 | 84 | 2.0 | 9.0 | 0.00 | 0.00 | 0.00 | 47 | 1015.6 |
| 20260901094804 | 88 | 23 | 5.0 | 9.0 | 0.00 | 0.00 | 0.00 | 50 | 1015.6 |
| 20260901094707 | 88 | 57 | 4.0 | 9.0 | 0.00 | 0.00 | 0.00 | 48 | 1015.6 |
| 20260901094605 | 88 | 86 | 2.0 | 9.0 | 0.00 | 0.00 | 0.00 | 48 | 1015.6 |
| 20260901094504 | 88 | 111 | 2.0 | 9.0 | 0.00 | 0.00 | 0.00 | 48 | 1015.6 |
| 20260901094406 | 88 | 101 | 5.0 | 9.0 | 0.00 | 0.00 | 0.00 | 48 | 1015.7 |
| 20260901094304 | 88 | 136 | 6.0 | 9.0 | 0.00 | 0.00 | 0.00 | 49 | 1015.7 |
| 20260901094106 | 88 | 90 | 9.0 | 9.0 | 0.00 | 0.00 | 0.00 | 49 | 1015.6 |
| 20260901093904 | 87 | 97 | 2.0 | 9.0 | 0.00 | 0.00 | 0.00 | 50 | 1015.6 |
| 20260901093806 | 87 | 82 | 3.0 | 9.0 | 0.00 | 0.00 | 0.00 | 51 | 1015.6 |
| 20260901093704 | 87 | 87 | 7.0 | 9.0 | 0.00 | 0.00 | 0.00 | 49 | 1015.7 |
| 20260901093603 | 87 | 75 | 4.0 | 7.0 | 0.00 | 0.00 | 0.00 | 50 | 1015.6 |
| 20260901093506 | 87 | 27 | 1.0 | 7.0 | 0.00 | 0.00 | 0.00 | 51 | 1015.6 |
| 20260901093404 | 87 | 21 | 3.0 | 7.0 | 0.00 | 0.00 | 0.00 | 50 | 1015.6 |
| 20260901093304 | 87 | 48 | 1.0 | 8.0 | 0.00 | 0.00 | 0.00 | 49 | 1015.7 |
| 20260901093103 | 87 | 360 | 2.0 | 8.0 | 0.00 | 0.00 | 0.00 | 50 | 1015.6 |
| 20260901093004 | 87 | 341 | 3.0 | 8.0 | 0.00 | 0.00 | 0.00 | 50 | 1015.7 |
| 20260901092906 | 87 | 47 | 2.0 | 8.0 | 0.00 | 0.00 | 0.00 | 51 | 1015.7 |
| 20260901092803 | 86 | 36 | 6.0 | 8.0 | 0.00 | 0.00 | 0.00 | 51 | 1015.7 |
| 20260901092703 | 86 | 5 | 3.0 | 8.0 | 0.00 | 0.00 | 0.00 | 53 | 1015.7 |
| 20260901092608 | 86 | 17 | 3.0 | 8.0 | 0.00 | 0.00 | 0.00 | 53 | 1015.7 |
| 20260901092405 | 86 | 28 | 3.0 | 8.0 | 0.00 | 0.00 | 0.00 | 51 | 1015.7 |
| 20260901092306 | 86 | 46 | 6.0 | 8.0 | 0.00 | 0.00 | 0.00 | 52 | 1015.7 |
| 20260901092205 | 86 | 28 | 7.0 | 7.0 | 0.00 | 0.00 | 0.00 | 51 | 1015.7 |
| 20260901092008 | 86 | 70 | 3.0 | 7.0 | 0.00 | 0.00 | 0.00 | 52 | 1015.7 |
| 20260901091904 | 86 | 56 | 7.0 | 7.0 | 0.00 | 0.00 | 0.00 | 52 | 1015.7 |
| 20260901091803 | 86 | 40 | 4.0 | 6.0 | 0.00 | 0.00 | 0.00 | 52 | 1015.7 |
| 20260901091707 | 86 | 41 | 2.0 | 6.0 | 0.00 | 0.00 | 0.00 | 51 | 1015.7 |
| 20260901091603 | 86 | 281 | 2.0 | 7.0 | 0.00 | 0.00 | 0.00 | 51 | 1015.7 |
| 20260901091303 | 86 | 346 | 4.0 | 8.0 | 0.00 | 0.00 | 0.00 | 51 | 1015.7 |
| 20260901091203 | 86 | 338 | 1.0 | 8.0 | 0.00 | 0.00 | 0.00 | 51 | 1015.8 |
| 20260901091106 | 86 | 329 | 1.0 | 8.0 | 0.00 | 0.00 | 0.00 | 51 | 1015.8 |
| 20260901090903 | 87 | 355 | 6.0 | 8.0 | 0.00 | 0.00 | 0.00 | 52 | 1015.8 |
| 20260901090806 | 87 | 355 | 4.0 | 8.0 | 0.00 | 0.00 | 0.00 | 51 | 1015.8 |
| 20260901090703 | 87 | 5 | 3.0 | 8.0 | 0.00 | 0.00 | 0.00 | 54 | 1015.8 |
| 20260901090604 | 87 | 13 | 4.0 | 8.0 | 0.00 | 0.00 | 0.00 | 52 | 1015.8 |
| 20260901090507 | 86 | 21 | 5.0 | 8.0 | 0.00 | 0.00 | 0.00 | 52 | 1015.8 |
| 20260901090404 | 86 | 46 | 5.0 | 7.0 | 0.00 | 0.00 | 0.00 | 52 | 1015.8 |
| 20260901090304 | 86 | 133 | 2.0 | 7.0 | 0.00 | 0.00 | 0.00 | 52 | 1015.7 |
| 20260901090206 | 86 | 111 | 5.0 | 7.0 | 0.00 | 0.00 | 0.00 | 53 | 1015.8 |
| 20260901090006 | 86 | 86 | 0.0 | 7.0 | 0.00 | 0.00 | 0.00 | 53 | 1015.8 |
| 20260901085908 | 86 | 97 | 7.0 | 7.0 | 0.00 | 0.00 | 0.00 | 53 | 1015.8 |
| 20260901085805 | 86 | 75 | 3.0 | 7.0 | 0.00 | 0.00 | 0.00 | 53 | 1015.8 |
| 20260901085703 | 86 | 55 | 3.0 | 7.0 | 0.00 | 0.00 | 0.00 | 53 | 1015.8 |
| 20260901085504 | 86 | 27 | 4.0 | 5.0 | 0.00 | 0.00 | 0.00 | 54 | 1015.8 |
| 20260901085404 | 86 | 30 | 4.0 | 5.0 | 0.00 | 0.00 | 0.00 | 55 | 1015.8 |
| 20260901085306 | 85 | 355 | 3.0 | 5.0 | 0.00 | 0.00 | 0.00 | 56 | 1015.7 |
| 20260901085203 | 85 | 5 | 2.0 | 5.0 | 0.00 | 0.00 | 0.00 | 57 | 1015.7 |
| 20260901085105 | 85 | 340 | 2.0 | 5.0 | 0.00 | 0.00 | 0.00 | 56 | 1015.7 |
| 20260901085008 | 85 | 338 | 4.0 | 5.0 | 0.00 | 0.00 | 0.00 | 56 | 1015.7 |
| 20260901084903 | 85 | 48 | 1.0 | 4.0 | 0.00 | 0.00 | 0.00 | 55 | 1015.8 |
| 20260901084803 | 85 | 355 | 1.0 | 4.0 | 0.00 | 0.00 | 0.00 | 56 | 1015.8 |
| 20260901084707 | 85 | 26 | 3.0 | 4.0 | 0.00 | 0.00 | 0.00 | 56 | 1015.8 |
| 20260901084603 | 85 | 329 | 1.0 | 4.0 | 0.00 | 0.00 | 0.00 | 56 | 1015.8 |
| 20260901084504 | 85 | 317 | 2.0 | 4.0 | 0.00 | 0.00 | 0.00 | 55 | 1015.8 |
| 20260901084408 | 85 | 315 | 2.0 | 4.0 | 0.00 | 0.00 | 0.00 | 56 | 1015.8 |
| 20260901084304 | 85 | 5 | 3.0 | 4.0 | 0.00 | 0.00 | 0.00 | 55 | 1015.8 |
| 20260901084203 | 85 | 65 | 2.0 | 4.0 | 0.00 | 0.00 | 0.00 | 56 | 1015.8 |
| 20260901084107 | 85 | 188 | 0.0 | 4.0 | 0.00 | 0.00 | 0.00 | 55 | 1015.8 |
| 20260901083903 | 85 | 188 | 1.0 | 4.0 | 0.00 | 0.00 | 0.00 | 55 | 1015.9 |
| 20260901083806 | 85 | 188 | 3.0 | 4.0 | 0.00 | 0.00 | 0.00 | 55 | 1015.8 |
| 20260901083703 | 85 | 161 | 1.0 | 3.0 | 0.00 | 0.00 | 0.00 | 55 | 1015.8 |
| 20260901083603 | 85 | 150 | 2.0 | 5.0 | 0.00 | 0.00 | 0.00 | 56 | 1015.8 |
| 20260901083506 | 85 | 165 | 1.0 | 5.0 | 0.00 | 0.00 | 0.00 | 56 | 1015.8 |
| 20260901083305 | 84 | 123 | 2.0 | 5.0 | 0.00 | 0.00 | 0.00 | 57 | 1015.8 |
| 20260901083106 | 84 | 125 | 2.0 | 5.0 | 0.00 | 0.00 | 0.00 | 56 | 1015.8 |
| 20260901083004 | 84 | 98 | 1.0 | 5.0 | 0.00 | 0.00 | 0.00 | 57 | 1015.8 |
| 20260901082907 | 84 | 98 | 1.0 | 5.0 | 0.00 | 0.00 | 0.00 | 58 | 1015.8 |
| 20260901082705 | 83 | 98 | 3.0 | 5.0 | 0.00 | 0.00 | 0.00 | 59 | 1015.8 |
| 20260901082607 | 83 | 161 | 3.0 | 6.0 | 0.00 | 0.00 | 0.00 | 58 | 1015.8 |
| 20260901082504 | 83 | 137 | 3.0 | 6.0 | 0.00 | 0.00 | 0.00 | 58 | 1015.8 |
| 20260901082403 | 83 | 53 | 1.0 | 7.0 | 0.00 | 0.00 | 0.00 | 58 | 1015.8 |
| 20260901082308 | 83 | 53 | 0.0 | 7.0 | 0.00 | 0.00 | 0.00 | 57 | 1015.8 |
| 20260901082203 | 83 | 36 | 3.0 | 7.0 | 0.00 | 0.00 | 0.00 | 58 | 1015.8 |
| 20260901082103 | 84 | 40 | 4.0 | 7.0 | 0.00 | 0.00 | 0.00 | 59 | 1015.8 |
| 20260901082008 | 84 | 23 | 3.0 | 7.0 | 0.00 | 0.00 | 0.00 | 57 | 1015.8 |
| 20260901081903 | 84 | 39 | 0.0 | 7.0 | 0.00 | 0.00 | 0.00 | 58 | 1015.8 |
| 20260901081805 | 84 | 43 | 3.0 | 7.0 | 0.00 | 0.00 | 0.00 | 57 | 1015.8 |
| 20260901081706 | 84 | 49 | 3.0 | 7.0 | 0.00 | 0.00 | 0.00 | 57 | 1015.8 |
| 20260901081604 | 84 | 21 | 6.0 | 7.0 | 0.00 | 0.00 | 0.00 | 58 | 1015.8 |
| 20260901081504 | 84 | 33 | 6.0 | 7.0 | 0.00 | 0.00 | 0.00 | 58 | 1015.8 |
| 20260901081406 | 84 | 43 | 5.0 | 7.0 | 0.00 | 0.00 | 0.00 | 59 | 1015.8 |
| 20260901081303 | 84 | 28 | 6.0 | 6.0 | 0.00 | 0.00 | 0.00 | 59 | 1015.8 |
| 20260901081203 | 84 | 27 | 6.0 | 7.0 | 0.00 | 0.00 | 0.00 | 59 | 1015.8 |
| 20260901081106 | 84 | 68 | 2.0 | 7.0 | 0.00 | 0.00 | 0.00 | 60 | 1015.8 |
| 20260901081005 | 84 | 28 | 5.0 | 7.0 | 0.00 | 0.00 | 0.00 | 60 | 1015.8 |
| 20260901080806 | 83 | 132 | 5.0 | 7.0 | 0.00 | 0.00 | 0.00 | 59 | 1015.8 |
| 20260901080703 | 83 | 107 | 3.0 | 7.0 | 0.00 | 0.00 | 0.00 | 58 | 1015.8 |
| 20260901080603 | 83 | 68 | 5.0 | 7.0 | 0.00 | 0.00 | 0.00 | 58 | 1015.8 |
| 20260901080506 | 83 | 17 | 3.0 | 7.0 | 0.00 | 0.00 | 0.00 | 58 | 1015.8 |
| 20260901080404 | 83 | 33 | 3.0 | 7.0 | 0.00 | 0.00 | 0.00 | 58 | 1015.8 |
| 20260901080303 | 83 | 58 | 1.0 | 7.0 | 0.00 | 0.00 | 0.00 | 59 | 1015.8 |
| 20260901080208 | 83 | 58 | 2.0 | 7.0 | 0.00 | 0.00 | 0.00 | 60 | 1015.8 |
| 20260901080119 | 83 | 96 | 3.0 | 7.0 | 0.00 | 0.00 | 0.00 | 60 | 1015.8 |
| 20260901080007 | 83 | 113 | 3.0 | 7.0 | 0.00 | 0.00 | 0.00 | 60 | 1015.8 |
| 20260901075606 | 82 | 92 | 5.0 | 7.0 | 0.00 | 0.00 | 0.00 | 60 | 1015.6 |
| 20260901075504 | 82 | 69 | 4.0 | 7.0 | 0.00 | 0.00 | 0.00 | 60 | 1015.7 |
| 20260901075404 | 82 | 46 | 3.0 | 5.0 | 0.00 | 0.00 | 0.00 | 60 | 1015.6 |
| 20260901075307 | 82 | 51 | 4.0 | 5.0 | 0.00 | 0.00 | 0.00 | 61 | 1015.6 |
| 20260901075204 | 82 | 57 | 2.0 | 5.0 | 0.00 | 0.00 | 0.00 | 60 | 1015.6 |
| 20260901075008 | 82 | 45 | 4.0 | 4.0 | 0.00 | 0.00 | 0.00 | 60 | 1015.6 |
| 20260901074905 | 82 | 346 | 2.0 | 4.0 | 0.00 | 0.00 | 0.00 | 60 | 1015.6 |
| 20260901074707 | 82 | 355 | 1.0 | 4.0 | 0.00 | 0.00 | 0.00 | 60 | 1015.6 |
| 20260901074604 | 82 | 355 | 2.0 | 4.0 | 0.00 | 0.00 | 0.00 | 60 | 1015.5 |
| 20260901074504 | 82 | 40 | 3.0 | 4.0 | 0.00 | 0.00 | 0.00 | 61 | 1015.5 |
| 20260901074407 | 82 | 350 | 2.0 | 4.0 | 0.00 | 0.00 | 0.00 | 61 | 1015.5 |
| 20260901074303 | 82 | 350 | 2.0 | 5.0 | 0.00 | 0.00 | 0.00 | 63 | 1015.5 |
| 20260901074205 | 82 | 350 | 2.0 | 5.0 | 0.00 | 0.00 | 0.00 | 62 | 1015.5 |
| 20260901074106 | 82 | 350 | 2.0 | 5.0 | 0.00 | 0.00 | 0.00 | 62 | 1015.5 |
| 20260901074005 | 82 | 28 | 1.0 | 5.0 | 0.00 | 0.00 | 0.00 | 62 | 1015.5 |
| 20260901073903 | 82 | 21 | 1.0 | 5.0 | 0.00 | 0.00 | 0.00 | 62 | 1015.4 |
| 20260901073807 | 81 | 36 | 2.0 | 5.0 | 0.00 | 0.00 | 0.00 | 62 | 1015.4 |
| 20260901073604 | 81 | 306 | 2.0 | 5.0 | 0.00 | 0.00 | 0.00 | 62 | 1015.4 |
| 20260901073506 | 81 | 306 | 2.0 | 5.0 | 0.00 | 0.00 | 0.00 | 63 | 1015.4 |
| 20260901073404 | 81 | 342 | 2.0 | 5.0 | 0.00 | 0.00 | 0.00 | 64 | 1015.5 |
| 20260901073303 | 81 | 355 | 4.0 | 5.0 | 0.00 | 0.00 | 0.00 | 64 | 1015.5 |
| 20260901073206 | 81 | 321 | 3.0 | 5.0 | 0.00 | 0.00 | 0.00 | 64 | 1015.5 |
| 20260901073103 | 81 | 111 | 0.0 | 6.0 | 0.00 | 0.00 | 0.00 | 63 | 1015.5 |
| 20260901073004 | 81 | 111 | 1.0 | 6.0 | 0.00 | 0.00 | 0.00 | 64 | 1015.4 |
| 20260901072906 | 81 | 110 | 2.0 | 6.0 | 0.00 | 0.00 | 0.00 | 63 | 1015.4 |
| 20260901072803 | 81 | 123 | 1.0 | 6.0 | 0.00 | 0.00 | 0.00 | 63 | 1015.5 |
| 20260901072703 | 81 | 35 | 2.0 | 6.0 | 0.00 | 0.00 | 0.00 | 62 | 1015.5 |
| 20260901072606 | 81 | 314 | 0.0 | 6.0 | 0.00 | 0.00 | 0.00 | 62 | 1015.5 |
| 20260901072504 | 81 | 314 | 1.0 | 6.0 | 0.00 | 0.00 | 0.00 | 61 | 1015.5 |
| 20260901072404 | 81 | 314 | 1.0 | 6.0 | 0.00 | 0.00 | 0.00 | 63 | 1015.5 |
| 20260901072203 | 81 | 343 | 2.0 | 6.0 | 0.00 | 0.00 | 0.00 | 63 | 1015.5 |
| 20260901072103 | 81 | 332 | 4.0 | 5.0 | 0.00 | 0.00 | 0.00 | 64 | 1015.5 |
| 20260901072007 | 81 | 360 | 2.0 | 5.0 | 0.00 | 0.00 | 0.00 | 64 | 1015.4 |
| 20260901071904 | 80 | 344 | 4.0 | 5.0 | 0.00 | 0.00 | 0.00 | 66 | 1015.5 |
| 20260901071804 | 80 | 21 | 2.0 | 5.0 | 0.00 | 0.00 | 0.00 | 66 | 1015.5 |
| 20260901071706 | 80 | 26 | 4.0 | 5.0 | 0.00 | 0.00 | 0.00 | 65 | 1015.4 |
| 20260901071603 | 80 | 311 | 2.0 | 5.0 | 0.00 | 0.00 | 0.00 | 64 | 1015.4 |
| 20260901071503 | 80 | 311 | 2.0 | 5.0 | 0.00 | 0.00 | 0.00 | 64 | 1015.4 |
| 20260901071407 | 80 | 311 | 2.0 | 5.0 | 0.00 | 0.00 | 0.00 | 64 | 1015.4 |
| 20260901071204 | 80 | 360 | 1.0 | 5.0 | 0.00 | 0.00 | 0.00 | 65 | 1015.4 |
| 20260901071005 | 80 | 5 | 2.0 | 4.0 | 0.00 | 0.00 | 0.00 | 66 | 1015.4 |
| 20260901070904 | 79 | 326 | 1.0 | 4.0 | 0.00 | 0.00 | 0.00 | 67 | 1015.5 |
| 20260901070806 | 79 | 315 | 1.0 | 4.0 | 0.00 | 0.00 | 0.00 | 66 | 1015.5 |
| 20260901070703 | 79 | 325 | 3.0 | 5.0 | 0.00 | 0.00 | 0.00 | 66 | 1015.5 |
| 20260901070603 | 79 | 321 | 3.0 | 5.0 | 0.00 | 0.00 | 0.00 | 66 | 1015.4 |
| 20260901070507 | 79 | 278 | 2.0 | 5.0 | 0.00 | 0.00 | 0.00 | 67 | 1015.5 |
| 20260901070404 | 79 | 323 | 1.0 | 6.0 | 0.00 | 0.00 | 0.00 | 66 | 1015.5 |
| 20260901070303 | 79 | 311 | 3.0 | 6.0 | 0.00 | 0.00 | 0.00 | 66 | 1015.4 |
| 20260901070206 | 79 | 332 | 4.0 | 6.0 | 0.00 | 0.00 | 0.00 | 66 | 1015.4 |
| 20260901070103 | 79 | 265 | 1.0 | 6.0 | 0.00 | 0.00 | 0.00 | 67 | 1015.4 |
| 20260901070007 | 79 | 242 | 1.0 | 6.0 | 0.00 | 0.00 | 0.00 | 66 | 1015.4 |
| 20260901065907 | 79 | 244 | 2.0 | 6.0 | 0.00 | 0.00 | 0.00 | 67 | 1015.4 |
| 20260901065804 | 78 | 248 | 1.0 | 6.0 | 0.00 | 0.00 | 0.00 | 68 | 1015.4 |
| 20260901065704 | 78 | 226 | 4.0 | 6.0 | 0.00 | 0.00 | 0.00 | 67 | 1015.4 |
| 20260901065606 | 78 | 203 | 4.0 | 6.0 | 0.00 | 0.00 | 0.00 | 68 | 1015.4 |
| 20260901065504 | 78 | 232 | 3.0 | 6.0 | 0.00 | 0.00 | 0.00 | 68 | 1015.4 |
| 20260901065403 | 78 | 215 | 6.0 | 6.0 | 0.00 | 0.00 | 0.00 | 69 | 1015.4 |
| 20260901065306 | 78 | 274 | 1.0 | 5.0 | 0.00 | 0.00 | 0.00 | 69 | 1015.4 |
| 20260901065103 | 78 | 259 | 2.0 | 5.0 | 0.00 | 0.00 | 0.00 | 68 | 1015.4 |
| 20260901064803 | 78 | 276 | 3.0 | 5.0 | 0.00 | 0.00 | 0.00 | 68 | 1015.4 |
| 20260901064603 | 77 | 297 | 5.0 | 5.0 | 0.00 | 0.00 | 0.00 | 68 | 1015.4 |
| 20260901064503 | 77 | 298 | 1.0 | 5.0 | 0.00 | 0.00 | 0.00 | 69 | 1015.4 |
| 20260901064406 | 77 | 286 | 2.0 | 5.0 | 0.00 | 0.00 | 0.00 | 69 | 1015.4 |
| 20260901064303 | 77 | 299 | 4.0 | 5.0 | 0.00 | 0.00 | 0.00 | 69 | 1015.4 |
| 20260901064203 | 77 | 315 | 2.0 | 3.0 | 0.00 | 0.00 | 0.00 | 69 | 1015.4 |
| 20260901064106 | 77 | 315 | 1.0 | 3.0 | 0.00 | 0.00 | 0.00 | 70 | 1015.4 |
| 20260901064004 | 77 | 315 | 1.0 | 3.0 | 0.00 | 0.00 | 0.00 | 70 | 1015.4 |
| 20260901063806 | 77 | 315 | 0.0 | 4.0 | 0.00 | 0.00 | 0.00 | 69 | 1015.4 |
| 20260901063703 | 77 | 315 | 1.0 | 4.0 | 0.00 | 0.00 | 0.00 | 69 | 1015.4 |
| 20260901063604 | 77 | 315 | 1.0 | 4.0 | 0.00 | 0.00 | 0.00 | 70 | 1015.3 |
| 20260901063506 | 76 | 315 | 3.0 | 4.0 | 0.00 | 0.00 | 0.00 | 71 | 1015.4 |
| 20260901063303 | 76 | 333 | 2.0 | 4.0 | 0.00 | 0.00 | 0.00 | 72 | 1015.4 |
| 20260901063004 | 76 | 340 | 1.0 | 4.0 | 0.00 | 0.00 | 0.00 | 72 | 1015.4 |
| 20260901062906 | 76 | 312 | 2.0 | 4.0 | 0.00 | 0.00 | 0.00 | 72 | 1015.4 |
| 20260901062703 | 75 | 246 | 2.0 | 4.0 | 0.00 | 0.00 | 0.00 | 73 | 1015.4 |
| 20260901062504 | 75 | 206 | 3.0 | 4.0 | 0.00 | 0.00 | 0.00 | 73 | 1015.4 |
| 20260901062404 | 75 | 277 | 4.0 | 4.0 | 0.00 | 0.00 | 0.00 | 73 | 1015.4 |
| 20260901062310 | 75 | 271 | 3.0 | 4.0 | 0.00 | 0.00 | 0.00 | 74 | 1015.4 |
| 20260901062204 | 74 | 224 | 2.0 | 3.0 | 0.00 | 0.00 | 0.00 | 74 | 1015.4 |
| 20260901062103 | 74 | 224 | 0.0 | 3.0 | 0.00 | 0.00 | 0.00 | 74 | 1015.4 |
| 20260901062008 | 74 | 224 | 1.0 | 4.0 | 0.00 | 0.00 | 0.00 | 74 | 1015.4 |
| 20260901061903 | 74 | 224 | 0.0 | 4.0 | 0.00 | 0.00 | 0.00 | 74 | 1015.4 |
| 20260901061804 | 74 | 224 | 1.0 | 4.0 | 0.00 | 0.00 | 0.00 | 75 | 1015.4 |
| 20260901061707 | 74 | 224 | 0.0 | 4.0 | 0.00 | 0.00 | 0.00 | 75 | 1015.3 |
| 20260901061605 | 73 | 224 | 0.0 | 4.0 | 0.00 | 0.00 | 0.00 | 75 | 1015.3 |
| 20260901061406 | 73 | 224 | 1.0 | 4.0 | 0.00 | 0.00 | 0.00 | 76 | 1015.3 |
| 20260901061303 | 73 | 218 | 2.0 | 4.0 | 0.00 | 0.00 | 0.00 | 77 | 1015.3 |
| 20260901061204 | 73 | 219 | 2.0 | 4.0 | 0.00 | 0.00 | 0.00 | 77 | 1015.3 |
| 20260901061004 | 72 | 163 | 2.0 | 4.0 | 0.00 | 0.00 | 0.00 | 78 | 1015.3 |
| 20260901060903 | 72 | 163 | 2.0 | 4.0 | 0.00 | 0.00 | 0.00 | 78 | 1015.3 |
| 20260901060806 | 72 | 163 | 2.0 | 4.0 | 0.00 | 0.00 | 0.00 | 79 | 1015.3 |
| 20260901060703 | 72 | 163 | 2.0 | 3.0 | 0.00 | 0.00 | 0.00 | 79 | 1015.4 |
| 20260901060604 | 71 | 163 | 2.0 | 2.0 | 0.00 | 0.00 | 0.00 | 80 | 1015.3 |
| 20260901060403 | 71 | 163 | 0.0 | 2.0 | 0.00 | 0.00 | 0.00 | 81 | 1015.3 |
| 20260901060303 | 71 | 163 | 1.0 | 2.0 | 0.00 | 0.00 | 0.00 | 81 | 1015.3 |
| 20260901060206 | 71 | 163 | 1.0 | 2.0 | 0.00 | 0.00 | 0.00 | 81 | 1015.3 |
| 20260901060118 | 70 | 163 | 0.0 | 2.0 | 0.00 | 0.00 | 0.00 | 82 | 1015.3 |
| 20260901060007 | 70 | 163 | 1.0 | 2.0 | 0.00 | 0.00 | 0.00 | 82 | 1015.3 |
| 20260901055907 | 70 | 163 | 0.0 | 2.0 | 0.00 | 0.00 | 0.00 | 82 | 1015.4 |
| 20260901055703 | 70 | 163 | 0.0 | 2.0 | 0.00 | 0.00 | 0.00 | 83 | 1015.3 |
| 20260901055607 | 70 | 163 | 0.0 | 2.0 | 0.00 | 0.00 | 0.00 | 83 | 1015.4 |
| 20260901055503 | 70 | 163 | 2.0 | 2.0 | 0.00 | 0.00 | 0.00 | 83 | 1015.3 |
| 20260901055403 | 69 | 163 | 0.0 | 2.0 | 0.00 | 0.00 | 0.00 | 83 | 1015.3 |
| 20260901055306 | 69 | 163 | 2.0 | 3.0 | 0.00 | 0.00 | 0.00 | 84 | 1015.3 |
| 20260901055203 | 69 | 163 | 0.0 | 3.0 | 0.00 | 0.00 | 0.00 | 84 | 1015.3 |
| 20260901055103 | 69 | 163 | 1.0 | 3.0 | 0.00 | 0.00 | 0.00 | 84 | 1015.3 |
| 20260901055007 | 69 | 163 | 2.0 | 4.0 | 0.00 | 0.00 | 0.00 | 84 | 1015.3 |
| 20260901054904 | 69 | 163 | 0.0 | 4.0 | 0.00 | 0.00 | 0.00 | 84 | 1015.3 |
| 20260901054803 | 69 | 163 | 0.0 | 4.0 | 0.00 | 0.00 | 0.00 | 85 | 1015.3 |
| 20260901054706 | 68 | 163 | 1.0 | 4.0 | 0.00 | 0.00 | 0.00 | 85 | 1015.3 |
| 20260901054604 | 68 | 163 | 2.0 | 5.0 | 0.00 | 0.00 | 0.00 | 85 | 1015.3 |
| 20260901054504 | 68 | 163 | 1.0 | 5.0 | 0.00 | 0.00 | 0.00 | 85 | 1015.3 |
| 20260901054407 | 68 | 163 | 2.0 | 5.0 | 0.00 | 0.00 | 0.00 | 85 | 1015.3 |
| 20260901054303 | 68 | 163 | 2.0 | 5.0 | 0.00 | 0.00 | 0.00 | 86 | 1015.3 |
| 20260901054204 | 67 | 163 | 2.0 | 5.0 | 0.00 | 0.00 | 0.00 | 86 | 1015.3 |
| 20260901053903 | 67 | 163 | 4.0 | 5.0 | 0.00 | 0.00 | 0.00 | 87 | 1015.3 |
| 20260901053806 | 67 | 163 | 2.0 | 5.0 | 0.00 | 0.00 | 0.00 | 87 | 1015.3 |
| 20260901053704 | 67 | 163 | 3.0 | 5.0 | 0.00 | 0.00 | 0.00 | 87 | 1015.2 |
| 20260901053603 | 66 | 163 | 3.0 | 5.0 | 0.00 | 0.00 | 0.00 | 87 | 1015.2 |
| 20260901053507 | 66 | 163 | 4.0 | 5.0 | 0.00 | 0.00 | 0.00 | 88 | 1015.2 |
| 20260901053403 | 66 | 163 | 3.0 | 4.0 | 0.00 | 0.00 | 0.00 | 88 | 1015.2 |
| 20260901053303 | 66 | 163 | 3.0 | 4.0 | 0.00 | 0.00 | 0.00 | 88 | 1015.2 |
| 20260901053206 | 65 | 163 | 3.0 | 4.0 | 0.00 | 0.00 | 0.00 | 88 | 1015.2 |
| 20260901053104 | 65 | 163 | 2.0 | 4.0 | 0.00 | 0.00 | 0.00 | 88 | 1015.2 |
| 20260901053005 | 65 | 163 | 3.0 | 4.0 | 0.00 | 0.00 | 0.00 | 88 | 1015.2 |
| 20260901052906 | 65 | 163 | 2.0 | 4.0 | 0.00 | 0.00 | 0.00 | 88 | 1015.2 |
| 20260901052803 | 65 | 163 | 1.0 | 4.0 | 0.00 | 0.00 | 0.00 | 88 | 1015.2 |
| 20260901052703 | 65 | 163 | 2.0 | 4.0 | 0.00 | 0.00 | 0.00 | 88 | 1015.2 |
| 20260901052606 | 65 | 163 | 2.0 | 4.0 | 0.00 | 0.00 | 0.00 | 89 | 1015.2 |
| 20260901052503 | 65 | 163 | 1.0 | 4.0 | 0.00 | 0.00 | 0.00 | 89 | 1015.2 |
| 20260901052404 | 64 | 163 | 2.0 | 4.0 | 0.00 | 0.00 | 0.00 | 89 | 1015.2 |
| 20260901052310 | 64 | 163 | 3.0 | 4.0 | 0.00 | 0.00 | 0.00 | 89 | 1015.2 |
| 20260901052103 | 64 | 155 | 1.0 | 2.0 | 0.00 | 0.00 | 0.00 | 89 | 1015.1 |
| 20260901052007 | 64 | 155 | 0.0 | 2.0 | 0.00 | 0.00 | 0.00 | 89 | 1015.1 |
| 20260901051904 | 64 | 155 | 0.0 | 2.0 | 0.00 | 0.00 | 0.00 | 89 | 1015.1 |
| 20260901051803 | 64 | 155 | 0.0 | 2.0 | 0.00 | 0.00 | 0.00 | 89 | 1015.1 |
| 20260901051603 | 64 | 155 | 2.0 | 2.0 | 0.00 | 0.00 | 0.00 | 89 | 1015.1 |
| 20260901051503 | 64 | 155 | 0.0 | 2.0 | 0.00 | 0.00 | 0.00 | 89 | 1015.0 |
| 20260901051406 | 64 | 155 | 0.0 | 2.0 | 0.00 | 0.00 | 0.00 | 89 | 1015.0 |
| 20260901051304 | 64 | 155 | 0.0 | 2.0 | 0.00 | 0.00 | 0.00 | 89 | 1015.0 |
| 20260901051204 | 64 | 155 | 1.0 | 1.0 | 0.00 | 0.00 | 0.00 | 89 | 1015.1 |
| 20260901051106 | 64 | 155 | 0.0 | 1.0 | 0.00 | 0.00 | 0.00 | 89 | 1015.0 |
| 20260901051004 | 64 | 155 | 0.0 | 1.0 | 0.00 | 0.00 | 0.00 | 89 | 1015.0 |
| 20260901050903 | 64 | 155 | 0.0 | 1.0 | 0.00 | 0.00 | 0.00 | 88 | 1015.0 |
| 20260901050703 | 64 | 155 | 0.0 | 1.0 | 0.00 | 0.00 | 0.00 | 88 | 1015.0 |
| 20260901050508 | 64 | 155 | 0.0 | 3.0 | 0.00 | 0.00 | 0.00 | 89 | 1014.9 |
| 20260901050403 | 64 | 155 | 0.0 | 4.0 | 0.00 | 0.00 | 0.00 | 88 | 1014.9 |
| 20260901050105 | 64 | 155 | 0.0 | 4.0 | 0.00 | 0.00 | 0.00 | 89 | 1014.9 |
| 20260901045906 | 64 | 155 | 1.0 | 4.0 | 0.00 | 0.00 | 0.00 | 89 | 1014.8 |
| 20260901045803 | 64 | 155 | 0.0 | 4.0 | 0.00 | 0.00 | 0.00 | 89 | 1014.8 |
| 20260901045703 | 63 | 155 | 0.0 | 4.0 | 0.00 | 0.00 | 0.00 | 89 | 1014.8 |
| 20260901045607 | 63 | 155 | 0.0 | 4.0 | 0.00 | 0.00 | 0.00 | 89 | 1014.8 |
| 20260901045404 | 63 | 155 | 3.0 | 4.0 | 0.00 | 0.00 | 0.00 | 88 | 1014.7 |
| 20260901045307 | 63 | 155 | 4.0 | 4.0 | 0.00 | 0.00 | 0.00 | 88 | 1014.7 |
| 20260901045204 | 63 | 155 | 3.0 | 4.0 | 0.00 | 0.00 | 0.00 | 88 | 1014.7 |
| 20260901045103 | 63 | 155 | 4.0 | 4.0 | 0.00 | 0.00 | 0.00 | 88 | 1014.6 |
| 20260901045007 | 63 | 184 | 3.0 | 4.0 | 0.00 | 0.00 | 0.00 | 88 | 1014.6 |
| 20260901044904 | 63 | 202 | 2.0 | 4.0 | 0.00 | 0.00 | 0.00 | 88 | 1014.6 |
| 20260901044804 | 63 | 202 | 1.0 | 4.0 | 0.00 | 0.00 | 0.00 | 88 | 1014.6 |
| 20260901044604 | 63 | 202 | 3.0 | 4.0 | 0.00 | 0.00 | 0.00 | 88 | 1014.5 |
| 20260901044506 | 63 | 229 | 4.0 | 4.0 | 0.00 | 0.00 | 0.00 | 88 | 1014.5 |
| 20260901044406 | 63 | 229 | 3.0 | 4.0 | 0.00 | 0.00 | 0.00 | 88 | 1014.5 |
| 20260901044304 | 63 | 229 | 3.0 | 3.0 | 0.00 | 0.00 | 0.00 | 88 | 1014.6 |
| 20260901044204 | 63 | 229 | 3.0 | 3.0 | 0.00 | 0.00 | 0.00 | 88 | 1014.5 |
| 20260901044107 | 63 | 229 | 2.0 | 3.0 | 0.00 | 0.00 | 0.00 | 88 | 1014.5 |
| 20260901044004 | 63 | 229 | 2.0 | 3.0 | 0.00 | 0.00 | 0.00 | 87 | 1014.5 |
| 20260901043903 | 63 | 229 | 2.0 | 3.0 | 0.00 | 0.00 | 0.00 | 87 | 1014.5 |
| 20260901043806 | 63 | 229 | 2.0 | 3.0 | 0.00 | 0.00 | 0.00 | 88 | 1014.5 |
| 20260901043703 | 63 | 229 | 3.0 | 3.0 | 0.00 | 0.00 | 0.00 | 88 | 1014.5 |
| 20260901043604 | 64 | 229 | 3.0 | 3.0 | 0.00 | 0.00 | 0.00 | 87 | 1014.5 |
| 20260901043508 | 64 | 229 | 2.0 | 3.0 | 0.00 | 0.00 | 0.00 | 87 | 1014.5 |
| 20260901043404 | 64 | 229 | 2.0 | 3.0 | 0.00 | 0.00 | 0.00 | 87 | 1014.5 |
| 20260901043303 | 64 | 229 | 2.0 | 3.0 | 0.00 | 0.00 | 0.00 | 87 | 1014.5 |
| 20260901043105 | 64 | 229 | 2.0 | 4.0 | 0.00 | 0.00 | 0.00 | 87 | 1014.5 |
| 20260901043004 | 64 | 229 | 3.0 | 4.0 | 0.00 | 0.00 | 0.00 | 87 | 1014.5 |
| 20260901042906 | 64 | 229 | 1.0 | 4.0 | 0.00 | 0.00 | 0.00 | 87 | 1014.5 |
| 20260901042804 | 64 | 229 | 2.0 | 4.0 | 0.00 | 0.00 | 0.00 | 87 | 1014.5 |
| 20260901042703 | 64 | 229 | 2.0 | 4.0 | 0.00 | 0.00 | 0.00 | 87 | 1014.5 |
| 20260901042606 | 64 | 229 | 3.0 | 4.0 | 0.00 | 0.00 | 0.00 | 87 | 1014.5 |
| 20260901042504 | 64 | 229 | 3.0 | 4.0 | 0.00 | 0.00 | 0.00 | 87 | 1014.5 |
| 20260901042404 | 64 | 229 | 3.0 | 4.0 | 0.00 | 0.00 | 0.00 | 87 | 1014.5 |
| 20260901042306 | 64 | 229 | 3.0 | 4.0 | 0.00 | 0.00 | 0.00 | 87 | 1014.5 |
| 20260901042204 | 64 | 229 | 3.0 | 4.0 | 0.00 | 0.00 | 0.00 | 87 | 1014.5 |
| 20260901042103 | 64 | 229 | 4.0 | 4.0 | 0.00 | 0.00 | 0.00 | 87 | 1014.4 |
| 20260901042006 | 64 | 229 | 4.0 | 4.0 | 0.00 | 0.00 | 0.00 | 87 | 1014.5 |
| 20260901041706 | 64 | 240 | 3.0 | 4.0 | 0.00 | 0.00 | 0.00 | 87 | 1014.4 |
| 20260901041603 | 64 | 240 | 2.0 | 4.0 | 0.00 | 0.00 | 0.00 | 86 | 1014.4 |
| 20260901041506 | 64 | 240 | 1.0 | 4.0 | 0.00 | 0.00 | 0.00 | 86 | 1014.4 |
| 20260901041406 | 64 | 240 | 2.0 | 4.0 | 0.00 | 0.00 | 0.00 | 86 | 1014.3 |
| 20260901041304 | 64 | 240 | 2.0 | 4.0 | 0.00 | 0.00 | 0.00 | 86 | 1014.3 |
| 20260901041203 | 64 | 240 | 3.0 | 4.0 | 0.00 | 0.00 | 0.00 | 86 | 1014.3 |
| 20260901041106 | 64 | 240 | 3.0 | 4.0 | 0.00 | 0.00 | 0.00 | 86 | 1014.3 |
| 20260901041004 | 64 | 240 | 3.0 | 4.0 | 0.00 | 0.00 | 0.00 | 86 | 1014.3 |
| 20260901040903 | 64 | 240 | 3.0 | 4.0 | 0.00 | 0.00 | 0.00 | 85 | 1014.3 |
| 20260901040806 | 64 | 249 | 2.0 | 2.0 | 0.00 | 0.00 | 0.00 | 85 | 1014.3 |
| 20260901040703 | 64 | 249 | 2.0 | 3.0 | 0.00 | 0.00 | 0.00 | 85 | 1014.3 |
| 20260901040604 | 64 | 249 | 2.0 | 3.0 | 0.00 | 0.00 | 0.00 | 85 | 1014.3 |
| 20260901040506 | 64 | 249 | 2.0 | 3.0 | 0.00 | 0.00 | 0.00 | 85 | 1014.3 |
| 20260901040403 | 64 | 249 | 2.0 | 4.0 | 0.00 | 0.00 | 0.00 | 85 | 1014.3 |
| 20260901040207 | 64 | 249 | 2.0 | 4.0 | 0.00 | 0.00 | 0.00 | 85 | 1014.3 |
| 20260901040130 | 64 | 249 | 1.0 | 4.0 | 0.00 | 0.00 | 0.00 | 85 | 1014.3 |
| 20260901035906 | 64 | 249 | 2.0 | 4.0 | 0.00 | 0.00 | 0.00 | 85 | 1014.3 |
| 20260901035703 | 64 | 249 | 2.0 | 4.0 | 0.00 | 0.00 | 0.00 | 85 | 1014.3 |
| 20260901035503 | 64 | 242 | 3.0 | 4.0 | 0.00 | 0.00 | 0.00 | 84 | 1014.3 |
| 20260901035404 | 64 | 248 | 3.0 | 3.0 | 0.00 | 0.00 | 0.00 | 84 | 1014.3 |
| 20260901035306 | 64 | 255 | 2.0 | 3.0 | 0.00 | 0.00 | 0.00 | 84 | 1014.3 |
| 20260901035203 | 64 | 267 | 3.0 | 3.0 | 0.00 | 0.00 | 0.00 | 84 | 1014.3 |
| 20260901035104 | 64 | 273 | 2.0 | 3.0 | 0.00 | 0.00 | 0.00 | 84 | 1014.3 |
| 20260901035007 | 64 | 313 | 2.0 | 3.0 | 0.00 | 0.00 | 0.00 | 84 | 1014.3 |
| 20260901034803 | 64 | 355 | 2.0 | 3.0 | 0.00 | 0.00 | 0.00 | 84 | 1014.4 |
| 20260901034705 | 64 | 355 | 3.0 | 3.0 | 0.00 | 0.00 | 0.00 | 84 | 1014.4 |
| 20260901034604 | 64 | 355 | 3.0 | 3.0 | 0.00 | 0.00 | 0.00 | 84 | 1014.4 |
| 20260901034503 | 64 | 355 | 2.0 | 3.0 | 0.00 | 0.00 | 0.00 | 84 | 1014.4 |
| 20260901034303 | 64 | 67 | 2.0 | 2.0 | 0.00 | 0.00 | 0.00 | 84 | 1014.3 |
| 20260901034004 | 64 | 67 | 0.0 | 2.0 | 0.00 | 0.00 | 0.00 | 84 | 1014.2 |
| 20260901033904 | 65 | 68 | 0.0 | 3.0 | 0.00 | 0.00 | 0.00 | 84 | 1014.2 |
| 20260901033806 | 65 | 68 | 0.0 | 3.0 | 0.00 | 0.00 | 0.00 | 83 | 1014.2 |
| 20260901033703 | 65 | 68 | 1.0 | 3.0 | 0.00 | 0.00 | 0.00 | 83 | 1014.2 |
| 20260901033507 | 65 | 68 | 2.0 | 3.0 | 0.00 | 0.00 | 0.00 | 83 | 1014.2 |
| 20260901033304 | 65 | 68 | 1.0 | 3.0 | 0.00 | 0.00 | 0.00 | 83 | 1014.2 |
| 20260901033207 | 65 | 68 | 1.0 | 3.0 | 0.00 | 0.00 | 0.00 | 83 | 1014.2 |
| 20260901033104 | 65 | 68 | 1.0 | 3.0 | 0.00 | 0.00 | 0.00 | 83 | 1014.3 |
| 20260901033004 | 65 | 68 | 1.0 | 3.0 | 0.00 | 0.00 | 0.00 | 83 | 1014.2 |
| 20260901032906 | 65 | 68 | 2.0 | 3.0 | 0.00 | 0.00 | 0.00 | 83 | 1014.2 |
| 20260901032803 | 65 | 68 | 2.0 | 2.0 | 0.00 | 0.00 | 0.00 | 83 | 1014.2 |
| 20260901032703 | 65 | 68 | 1.0 | 2.0 | 0.00 | 0.00 | 0.00 | 82 | 1014.2 |
| 20260901032607 | 65 | 68 | 1.0 | 2.0 | 0.00 | 0.00 | 0.00 | 82 | 1014.2 |
| 20260901032503 | 65 | 68 | 1.0 | 2.0 | 0.00 | 0.00 | 0.00 | 82 | 1014.1 |
| 20260901032403 | 65 | 68 | 1.0 | 1.0 | 0.00 | 0.00 | 0.00 | 82 | 1014.1 |
| 20260901032307 | 65 | 68 | 0.0 | 2.0 | 0.00 | 0.00 | 0.00 | 81 | 1014.1 |
| 20260901032203 | 66 | 68 | 0.0 | 2.0 | 0.00 | 0.00 | 0.00 | 81 | 1014.0 |
| 20260901032103 | 66 | 67 | 0.0 | 3.0 | 0.00 | 0.00 | 0.00 | 81 | 1014.1 |
| 20260901032007 | 66 | 67 | 0.0 | 4.0 | 0.00 | 0.00 | 0.00 | 81 | 1014.1 |
| 20260901031904 | 66 | 68 | 0.0 | 4.0 | 0.00 | 0.00 | 0.00 | 81 | 1014.1 |
| 20260901031805 | 66 | 67 | 0.0 | 4.0 | 0.00 | 0.00 | 0.00 | 81 | 1014.1 |
| 20260901031604 | 66 | 67 | 0.0 | 4.0 | 0.00 | 0.00 | 0.00 | 81 | 1014.1 |
| 20260901031504 | 66 | 67 | 0.0 | 4.0 | 0.00 | 0.00 | 0.00 | 81 | 1014.1 |
| 20260901031406 | 66 | 68 | 0.0 | 4.0 | 0.00 | 0.00 | 0.00 | 81 | 1014.1 |
| 20260901031303 | 67 | 68 | 2.0 | 4.0 | 0.00 | 0.00 | 0.00 | 81 | 1014.1 |
| 20260901031204 | 67 | 68 | 1.0 | 4.0 | 0.00 | 0.00 | 0.00 | 80 | 1014.1 |
| 20260901031106 | 67 | 68 | 3.0 | 4.0 | 0.00 | 0.00 | 0.00 | 80 | 1014.1 |
| 20260901031004 | 67 | 68 | 3.0 | 4.0 | 0.00 | 0.00 | 0.00 | 80 | 1014.1 |
| 20260901030703 | 67 | 47 | 2.0 | 3.0 | 0.00 | 0.00 | 0.00 | 80 | 1014.0 |
| 20260901030604 | 67 | 47 | 2.0 | 3.0 | 0.00 | 0.00 | 0.00 | 80 | 1014.0 |
| 20260901030508 | 67 | 47 | 2.0 | 2.0 | 0.00 | 0.00 | 0.00 | 80 | 1014.0 |
| 20260901030404 | 67 | 47 | 1.0 | 2.0 | 0.00 | 0.00 | 0.00 | 79 | 1014.0 |
| 20260901030303 | 67 | 47 | 2.0 | 3.0 | 0.00 | 0.00 | 0.00 | 79 | 1013.9 |
| 20260901030206 | 68 | 47 | 1.0 | 3.0 | 0.00 | 0.00 | 0.00 | 79 | 1013.9 |
| 20260901030007 | 68 | 40 | 2.0 | 4.0 | 0.00 | 0.00 | 0.00 | 79 | 1013.9 |
| 20260901025906 | 68 | 40 | 2.0 | 4.0 | 0.00 | 0.00 | 0.00 | 79 | 1013.9 |
| 20260901025803 | 68 | 40 | 1.0 | 4.0 | 0.00 | 0.00 | 0.00 | 78 | 1013.9 |
| 20260901025703 | 68 | 40 | 1.0 | 4.0 | 0.00 | 0.00 | 0.00 | 78 | 1013.9 |
| 20260901025606 | 68 | 40 | 1.0 | 4.0 | 0.00 | 0.00 | 0.00 | 78 | 1013.9 |
| 20260901025505 | 68 | 40 | 1.0 | 4.0 | 0.00 | 0.00 | 0.00 | 78 | 1013.9 |
| 20260901025403 | 69 | 40 | 1.0 | 4.0 | 0.00 | 0.00 | 0.00 | 77 | 1013.9 |
| 20260901025307 | 69 | 40 | 2.0 | 4.0 | 0.00 | 0.00 | 0.00 | 78 | 1013.9 |
| 20260901025203 | 69 | 40 | 2.0 | 4.0 | 0.00 | 0.00 | 0.00 | 78 | 1013.9 |
| 20260901025103 | 69 | 40 | 3.0 | 4.0 | 0.00 | 0.00 | 0.00 | 77 | 1013.8 |
| 20260901025008 | 69 | 30 | 3.0 | 4.0 | 0.00 | 0.00 | 0.00 | 77 | 1013.8 |
| 20260901024903 | 69 | 30 | 3.0 | 4.0 | 0.00 | 0.00 | 0.00 | 77 | 1013.8 |
| 20260901024706 | 69 | 31 | 4.0 | 4.0 | 0.00 | 0.00 | 0.00 | 77 | 1013.8 |
| 20260901024604 | 69 | 29 | 3.0 | 5.0 | 0.00 | 0.00 | 0.00 | 77 | 1013.9 |
| 20260901024406 | 69 | 24 | 3.0 | 5.0 | 0.00 | 0.00 | 0.00 | 76 | 1013.8 |
| 20260901024303 | 69 | 29 | 4.0 | 5.0 | 0.00 | 0.00 | 0.00 | 76 | 1013.8 |
| 20260901024204 | 69 | 25 | 4.0 | 5.0 | 0.00 | 0.00 | 0.00 | 76 | 1013.8 |
| 20260901024107 | 69 | 21 | 2.0 | 5.0 | 0.00 | 0.00 | 0.00 | 76 | 1013.8 |
| 20260901024005 | 69 | 22 | 3.0 | 5.0 | 0.00 | 0.00 | 0.00 | 76 | 1013.8 |
| 20260901023806 | 69 | 25 | 1.0 | 5.0 | 0.00 | 0.00 | 0.00 | 77 | 1013.8 |
| 20260901023703 | 69 | 28 | 3.0 | 5.0 | 0.00 | 0.00 | 0.00 | 77 | 1013.8 |
| 20260901023604 | 69 | 30 | 4.0 | 5.0 | 0.00 | 0.00 | 0.00 | 77 | 1013.8 |
| 20260901023403 | 69 | 23 | 5.0 | 5.0 | 0.00 | 0.00 | 0.00 | 79 | 1013.8 |
| 20260901023206 | 68 | 34 | 4.0 | 5.0 | 0.00 | 0.00 | 0.00 | 79 | 1013.8 |
| 20260901023005 | 68 | 15 | 4.0 | 4.0 | 0.00 | 0.00 | 0.00 | 79 | 1013.8 |
| 20260901022906 | 68 | 22 | 3.0 | 4.0 | 0.00 | 0.00 | 0.00 | 78 | 1013.8 |
| 20260901022803 | 68 | 19 | 3.0 | 4.0 | 0.00 | 0.00 | 0.00 | 78 | 1013.8 |
| 20260901022703 | 68 | 34 | 2.0 | 4.0 | 0.00 | 0.00 | 0.00 | 78 | 1013.7 |
| 20260901022607 | 68 | 34 | 3.0 | 4.0 | 0.00 | 0.00 | 0.00 | 78 | 1013.7 |
| 20260901022503 | 68 | 34 | 4.0 | 4.0 | 0.00 | 0.00 | 0.00 | 78 | 1013.8 |
| 20260901022306 | 68 | 35 | 3.0 | 5.0 | 0.00 | 0.00 | 0.00 | 78 | 1013.8 |
| 20260901022103 | 68 | 35 | 1.0 | 6.0 | 0.00 | 0.00 | 0.00 | 77 | 1013.8 |
| 20260901022007 | 68 | 36 | 1.0 | 6.0 | 0.00 | 0.00 | 0.00 | 78 | 1013.8 |
| 20260901021903 | 68 | 36 | 3.0 | 6.0 | 0.00 | 0.00 | 0.00 | 78 | 1013.7 |
| 20260901021803 | 68 | 38 | 3.0 | 6.0 | 0.00 | 0.00 | 0.00 | 78 | 1013.7 |
| 20260901021706 | 68 | 38 | 2.0 | 6.0 | 0.00 | 0.00 | 0.00 | 78 | 1013.7 |
| 20260901021604 | 68 | 38 | 2.0 | 6.0 | 0.00 | 0.00 | 0.00 | 78 | 1013.7 |
| 20260901021406 | 67 | 38 | 4.0 | 6.0 | 0.00 | 0.00 | 0.00 | 79 | 1013.7 |
| 20260901021304 | 67 | 28 | 4.0 | 6.0 | 0.00 | 0.00 | 0.00 | 79 | 1013.7 |
| 20260901021203 | 67 | 34 | 4.0 | 5.0 | 0.00 | 0.00 | 0.00 | 79 | 1013.6 |
| 20260901021004 | 67 | 54 | 3.0 | 5.0 | 0.00 | 0.00 | 0.00 | 80 | 1013.6 |
| 20260901020805 | 67 | 36 | 4.0 | 4.0 | 0.00 | 0.00 | 0.00 | 80 | 1013.6 |
| 20260901020703 | 67 | 32 | 3.0 | 4.0 | 0.00 | 0.00 | 0.00 | 80 | 1013.6 |
| 20260901020603 | 67 | 32 | 1.0 | 3.0 | 0.00 | 0.00 | 0.00 | 79 | 1013.6 |
| 20260901020506 | 67 | 32 | 3.0 | 4.0 | 0.00 | 0.00 | 0.00 | 79 | 1013.6 |
| 20260901020403 | 67 | 32 | 2.0 | 4.0 | 0.00 | 0.00 | 0.00 | 79 | 1013.6 |
| 20260901020303 | 67 | 32 | 2.0 | 4.0 | 0.00 | 0.00 | 0.00 | 79 | 1013.6 |
| 20260901020116 | 68 | 23 | 2.0 | 4.0 | 0.00 | 0.00 | 0.00 | 79 | 1013.5 |
| 20260901020006 | 68 | 24 | 2.0 | 4.0 | 0.00 | 0.00 | 0.00 | 79 | 1013.6 |
| 20260901015907 | 68 | 32 | 2.0 | 4.0 | 0.00 | 0.00 | 0.00 | 79 | 1013.6 |
| 20260901015703 | 68 | 22 | 3.0 | 4.0 | 0.00 | 0.00 | 0.00 | 78 | 1013.6 |
| 20260901015607 | 68 | 22 | 3.0 | 4.0 | 0.00 | 0.00 | 0.00 | 78 | 1013.6 |
| 20260901015504 | 68 | 177 | 2.0 | 2.0 | 0.00 | 0.00 | 0.00 | 78 | 1013.5 |
| 20260901015403 | 68 | 177 | 1.0 | 2.0 | 0.00 | 0.00 | 0.00 | 77 | 1013.5 |
| 20260901015307 | 68 | 177 | 1.0 | 2.0 | 0.00 | 0.00 | 0.00 | 78 | 1013.6 |
| 20260901015203 | 68 | 177 | 1.0 | 2.0 | 0.00 | 0.00 | 0.00 | 77 | 1013.6 |
| 20260901015103 | 68 | 177 | 1.0 | 2.0 | 0.00 | 0.00 | 0.00 | 77 | 1013.6 |
| 20260901015006 | 68 | 177 | 1.0 | 2.0 | 0.00 | 0.00 | 0.00 | 77 | 1013.5 |
| 20260901014903 | 68 | 177 | 1.0 | 2.0 | 0.00 | 0.00 | 0.00 | 77 | 1013.6 |
| 20260901014803 | 68 | 177 | 0.0 | 2.0 | 0.00 | 0.00 | 0.00 | 76 | 1013.6 |
| 20260901014706 | 68 | 177 | 0.0 | 2.0 | 0.00 | 0.00 | 0.00 | 76 | 1013.6 |
| 20260901014503 | 68 | 177 | 1.0 | 2.0 | 0.00 | 0.00 | 0.00 | 76 | 1013.6 |
| 20260901014406 | 68 | 177 | 2.0 | 2.0 | 0.00 | 0.00 | 0.00 | 76 | 1013.6 |
| 20260901014303 | 69 | 177 | 0.0 | 2.0 | 0.00 | 0.00 | 0.00 | 76 | 1013.6 |
| 20260901014203 | 69 | 177 | 0.0 | 2.0 | 0.00 | 0.00 | 0.00 | 76 | 1013.6 |
| 20260901014108 | 69 | 177 | 0.0 | 2.0 | 0.00 | 0.00 | 0.00 | 76 | 1013.6 |
| 20260901013903 | 69 | 177 | 0.0 | 2.0 | 0.00 | 0.00 | 0.00 | 76 | 1013.5 |
| 20260901013806 | 69 | 177 | 1.0 | 2.0 | 0.00 | 0.00 | 0.00 | 76 | 1013.6 |
| 20260901013704 | 69 | 177 | 1.0 | 2.0 | 0.00 | 0.00 | 0.00 | 76 | 1013.6 |
| 20260901013507 | 69 | 177 | 1.0 | 4.0 | 0.00 | 0.00 | 0.00 | 76 | 1013.6 |
| 20260901013403 | 69 | 177 | 1.0 | 4.0 | 0.00 | 0.00 | 0.00 | 76 | 1013.6 |
| 20260901013303 | 69 | 186 | 1.0 | 4.0 | 0.00 | 0.00 | 0.00 | 75 | 1013.6 |
| 20260901013206 | 69 | 186 | 0.0 | 4.0 | 0.00 | 0.00 | 0.00 | 75 | 1013.6 |
| 20260901013104 | 69 | 186 | 1.0 | 4.0 | 0.00 | 0.00 | 0.00 | 75 | 1013.7 |
| 20260901012906 | 69 | 186 | 1.0 | 4.0 | 0.00 | 0.00 | 0.00 | 74 | 1013.6 |
| 20260901012803 | 69 | 186 | 2.0 | 4.0 | 0.00 | 0.00 | 0.00 | 74 | 1013.6 |
| 20260901012703 | 69 | 186 | 1.0 | 4.0 | 0.00 | 0.00 | 0.00 | 74 | 1013.6 |
| 20260901012503 | 69 | 186 | 0.0 | 3.0 | 0.00 | 0.00 | 0.00 | 74 | 1013.6 |
| 20260901012403 | 69 | 186 | 0.0 | 3.0 | 0.00 | 0.00 | 0.00 | 74 | 1013.5 |
| 20260901012306 | 70 | 186 | 0.0 | 3.0 | 0.00 | 0.00 | 0.00 | 74 | 1013.5 |
| 20260901012204 | 70 | 186 | 0.0 | 3.0 | 0.00 | 0.00 | 0.00 | 73 | 1013.6 |
| 20260901012104 | 70 | 186 | 0.0 | 3.0 | 0.00 | 0.00 | 0.00 | 73 | 1013.5 |
| 20260901011903 | 70 | 186 | 0.0 | 3.0 | 0.00 | 0.00 | 0.00 | 73 | 1013.6 |
| 20260901011803 | 70 | 186 | 0.0 | 3.0 | 0.00 | 0.00 | 0.00 | 73 | 1013.6 |
| 20260901011706 | 70 | 186 | 0.0 | 3.0 | 0.00 | 0.00 | 0.00 | 72 | 1013.6 |
| 20260901011604 | 70 | 186 | 0.0 | 3.0 | 0.00 | 0.00 | 0.00 | 72 | 1013.6 |
| 20260901011406 | 71 | 125 | 0.0 | 3.0 | 0.00 | 0.00 | 0.00 | 72 | 1013.5 |
| 20260901011304 | 71 | 125 | 0.0 | 3.0 | 0.00 | 0.00 | 0.00 | 72 | 1013.6 |
| 20260901011005 | 71 | 125 | 1.0 | 3.0 | 0.00 | 0.00 | 0.00 | 71 | 1013.6 |
| 20260901010903 | 71 | 125 | 2.0 | 5.0 | 0.00 | 0.00 | 0.00 | 71 | 1013.5 |
| 20260901010807 | 71 | 125 | 1.0 | 5.0 | 0.00 | 0.00 | 0.00 | 71 | 1013.6 |
| 20260901010605 | 71 | 125 | 1.0 | 5.0 | 0.00 | 0.00 | 0.00 | 70 | 1013.5 |
| 20260901010506 | 71 | 125 | 2.0 | 5.0 | 0.00 | 0.00 | 0.00 | 70 | 1013.5 |
| 20260901010403 | 72 | 125 | 1.0 | 5.0 | 0.00 | 0.00 | 0.00 | 70 | 1013.5 |
| 20260901010205 | 72 | 101 | 3.0 | 5.0 | 0.00 | 0.00 | 0.00 | 70 | 1013.5 |
| 20260901010104 | 72 | 94 | 3.0 | 5.0 | 0.00 | 0.00 | 0.00 | 70 | 1013.5 |
| 20260901010007 | 72 | 94 | 3.0 | 5.0 | 0.00 | 0.00 | 0.00 | 69 | 1013.5 |
| 20260901005906 | 72 | 92 | 3.0 | 5.0 | 0.00 | 0.00 | 0.00 | 68 | 1013.5 |
| 20260901005803 | 72 | 59 | 3.0 | 5.0 | 0.00 | 0.00 | 0.00 | 68 | 1013.5 |
| 20260901005703 | 72 | 42 | 3.0 | 5.0 | 0.00 | 0.00 | 0.00 | 68 | 1013.4 |
| 20260901005606 | 72 | 34 | 4.0 | 5.0 | 0.00 | 0.00 | 0.00 | 68 | 1013.4 |
| 20260901005505 | 73 | 54 | 4.0 | 5.0 | 0.00 | 0.00 | 0.00 | 67 | 1013.4 |
| 20260901005403 | 73 | 63 | 3.0 | 4.0 | 0.00 | 0.00 | 0.00 | 67 | 1013.4 |
| 20260901005307 | 73 | 63 | 1.0 | 4.0 | 0.00 | 0.00 | 0.00 | 67 | 1013.4 |
| 20260901005203 | 73 | 51 | 0.0 | 4.0 | 0.00 | 0.00 | 0.00 | 66 | 1013.4 |
| 20260901005103 | 73 | 51 | 0.0 | 4.0 | 0.00 | 0.00 | 0.00 | 66 | 1013.4 |
| 20260901005006 | 73 | 51 | 0.0 | 4.0 | 0.00 | 0.00 | 0.00 | 66 | 1013.3 |
| 20260901004903 | 74 | 51 | 0.0 | 4.0 | 0.00 | 0.00 | 0.00 | 66 | 1013.3 |
| 20260901004803 | 74 | 51 | 0.0 | 4.0 | 0.00 | 0.00 | 0.00 | 65 | 1013.3 |
| 20260901004706 | 74 | 51 | 1.0 | 4.0 | 0.00 | 0.00 | 0.00 | 65 | 1013.3 |
| 20260901004603 | 74 | 51 | 2.0 | 4.0 | 0.00 | 0.00 | 0.00 | 65 | 1013.3 |
| 20260901004503 | 74 | 51 | 4.0 | 5.0 | 0.00 | 0.00 | 0.00 | 65 | 1013.3 |
| 20260901004406 | 74 | 51 | 3.0 | 5.0 | 0.00 | 0.00 | 0.00 | 64 | 1013.3 |
| 20260901004304 | 74 | 51 | 3.0 | 5.0 | 0.00 | 0.00 | 0.00 | 64 | 1013.3 |
| 20260901004105 | 74 | 55 | 3.0 | 7.0 | 0.00 | 0.00 | 0.00 | 63 | 1013.2 |
| 20260901004004 | 75 | 56 | 4.0 | 7.0 | 0.00 | 0.00 | 0.00 | 63 | 1013.3 |
| 20260901003903 | 75 | 69 | 3.0 | 7.0 | 0.00 | 0.00 | 0.00 | 63 | 1013.2 |
| 20260901003806 | 75 | 69 | 4.0 | 7.0 | 0.00 | 0.00 | 0.00 | 62 | 1013.2 |
| 20260901003703 | 75 | 74 | 4.0 | 7.0 | 0.00 | 0.00 | 0.00 | 62 | 1013.3 |
| 20260901003603 | 75 | 73 | 3.0 | 7.0 | 0.00 | 0.00 | 0.00 | 62 | 1013.2 |
| 20260901003403 | 76 | 69 | 4.0 | 7.0 | 0.00 | 0.00 | 0.00 | 61 | 1013.2 |
| 20260901003303 | 76 | 67 | 3.0 | 7.0 | 0.00 | 0.00 | 0.00 | 61 | 1013.2 |
| 20260901003206 | 76 | 62 | 5.0 | 7.0 | 0.00 | 0.00 | 0.00 | 60 | 1013.2 |
| 20260901003104 | 77 | 77 | 4.0 | 7.0 | 0.00 | 0.00 | 0.00 | 60 | 1013.2 |
| 20260901003004 | 77 | 66 | 2.0 | 7.0 | 0.00 | 0.00 | 0.00 | 60 | 1013.2 |
| 20260901002906 | 77 | 69 | 2.0 | 7.0 | 0.00 | 0.00 | 0.00 | 60 | 1013.1 |
| 20260901002803 | 77 | 65 | 4.0 | 8.0 | 0.00 | 0.00 | 0.00 | 61 | 1013.1 |
| 20260901002703 | 77 | 77 | 3.0 | 8.0 | 0.00 | 0.00 | 0.00 | 60 | 1013.1 |
| 20260901002606 | 78 | 192 | 1.0 | 8.0 | 0.00 | 0.00 | 0.00 | 60 | 1013.2 |
| 20260901002503 | 78 | 210 | 2.0 | 8.0 | 0.00 | 0.00 | 0.00 | 60 | 1013.1 |
| 20260901002404 | 78 | 171 | 2.0 | 8.0 | 0.00 | 0.00 | 0.00 | 60 | 1013.1 |
| 20260901002307 | 78 | 238 | 3.0 | 10.0 | 0.00 | 0.00 | 0.00 | 60 | 1013.1 |
| 20260901002105 | 78 | 181 | 7.0 | 10.0 | 0.00 | 0.00 | 0.00 | 59 | 1013.1 |
| 20260901002007 | 78 | 194 | 3.0 | 10.0 | 0.00 | 0.00 | 0.00 | 59 | 1013.1 |
| 20260901001903 | 78 | 190 | 5.0 | 10.0 | 0.00 | 0.00 | 0.00 | 59 | 1013.0 |
| 20260901001803 | 78 | 194 | 5.0 | 11.0 | 0.00 | 0.00 | 0.00 | 59 | 1013.0 |
| 20260901001706 | 78 | 194 | 7.0 | 11.0 | 0.00 | 0.00 | 0.00 | 59 | 1013.0 |
| 20260901001604 | 78 | 188 | 5.0 | 11.0 | 0.00 | 0.00 | 0.00 | 59 | 1013.0 |
| 20260901001504 | 78 | 232 | 5.0 | 11.0 | 0.00 | 0.00 | 0.00 | 59 | 1013.1 |
| 20260901001405 | 78 | 228 | 8.0 | 11.0 | 0.00 | 0.00 | 0.00 | 59 | 1013.1 |
| 20260901001303 | 78 | 233 | 10.0 | 11.0 | 0.00 | 0.00 | 0.00 | 59 | 1013.1 |
| 20260901001203 | 78 | 229 | 9.0 | 11.0 | 0.00 | 0.00 | 0.00 | 59 | 1013.1 |
| 20260901001107 | 78 | 193 | 6.0 | 11.0 | 0.00 | 0.00 | 0.00 | 59 | 1013.1 |
| 20260901001004 | 78 | 216 | 6.0 | 11.0 | 0.00 | 0.00 | 0.00 | 59 | 1013.0 |
| 20260901000903 | 78 | 217 | 7.0 | 12.0 | 0.00 | 0.00 | 0.00 | 59 | 1013.1 |
| 20260901000703 | 78 | 230 | 8.0 | 12.0 | 0.00 | 0.00 | 0.00 | 59 | 1013.0 |
| 20260901000506 | 78 | 234 | 8.0 | 12.0 | 0.00 | 0.00 | 0.00 | 59 | 1013.0 |
| 20260901000405 | 78 | 223 | 7.0 | 12.0 | 0.00 | 0.00 | 0.00 | 59 | 1013.0 |
| 20260901000303 | 78 | 201 | 6.0 | 12.0 | 0.00 | 0.00 | 0.00 | 59 | 1013.0 |
| 20260901000206 | 78 | 234 | 9.0 | 12.0 | 0.00 | 0.00 | 0.00 | 59 | 1013.0 |
| 20260901000125 | 78 | 221 | 9.0 | 12.0 | 0.00 | 0.00 | 0.00 | 59 | 1013.0 |
| 20260901000006 | 78 | 244 | 7.0 | 12.0 | 0.00 | 0.00 | 0.00 | 59 | 1013.0 |
| 20260831235906 | 78 | 241 | 11.0 | 12.0 | 0.00 | 0.00 | 0.00 | 59 | 1013.0 |
| 20260831235804 | 78 | 236 | 9.0 | 11.0 | 0.00 | 0.00 | 0.00 | 59 | 1013.0 |
| 20260831235606 | 78 | 215 | 3.0 | 11.0 | 0.00 | 0.00 | 0.00 | 59 | 1013.0 |
| 20260831235503 | 78 | 246 | 4.0 | 11.0 | 0.00 | 0.00 | 0.00 | 59 | 1013.0 |
| 20260831235403 | 78 | 242 | 7.0 | 11.0 | 0.00 | 0.00 | 0.00 | 59 | 1013.0 |
| 20260831235306 | 78 | 227 | 8.0 | 11.0 | 0.00 | 0.00 | 0.00 | 59 | 1013.0 |
| 20260831235203 | 78 | 225 | 4.0 | 10.0 | 0.00 | 0.00 | 0.00 | 59 | 1012.9 |
| 20260831235103 | 78 | 220 | 6.0 | 10.0 | 0.00 | 0.00 | 0.00 | 59 | 1012.9 |
| 20260831235007 | 78 | 242 | 7.0 | 10.0 | 0.00 | 0.00 | 0.00 | 59 | 1012.9 |
| 20260831234903 | 78 | 234 | 7.0 | 10.0 | 0.00 | 0.00 | 0.00 | 59 | 1012.9 |
| 20260831234805 | 78 | 235 | 8.0 | 10.0 | 0.00 | 0.00 | 0.00 | 59 | 1012.9 |
| 20260831234708 | 78 | 246 | 6.0 | 10.0 | 0.00 | 0.00 | 0.00 | 59 | 1012.9 |
| 20260831234603 | 78 | 234 | 8.0 | 10.0 | 0.00 | 0.00 | 0.00 | 59 | 1012.9 |
| 20260831234503 | 78 | 209 | 7.0 | 10.0 | 0.00 | 0.00 | 0.00 | 59 | 1012.9 |
| 20260831234405 | 78 | 211 | 6.0 | 10.0 | 0.00 | 0.00 | 0.00 | 58 | 1012.9 |
| 20260831234303 | 78 | 221 | 5.0 | 10.0 | 0.00 | 0.00 | 0.00 | 58 | 1012.9 |
| 20260831234203 | 78 | 213 | 7.0 | 10.0 | 0.00 | 0.00 | 0.00 | 58 | 1012.9 |
| 20260831234003 | 78 | 229 | 4.0 | 10.0 | 0.00 | 0.00 | 0.00 | 58 | 1012.9 |
| 20260831233905 | 78 | 225 | 6.0 | 10.0 | 0.00 | 0.00 | 0.00 | 58 | 1012.9 |
| 20260831233805 | 78 | 212 | 4.0 | 10.0 | 0.00 | 0.00 | 0.00 | 58 | 1013.0 |
| 20260831233703 | 78 | 222 | 8.0 | 10.0 | 0.00 | 0.00 | 0.00 | 58 | 1012.9 |
| 20260831233603 | 78 | 210 | 7.0 | 9.0 | 0.00 | 0.00 | 0.00 | 58 | 1012.9 |
| 20260831233506 | 78 | 211 | 7.0 | 9.0 | 0.00 | 0.00 | 0.00 | 58 | 1012.9 |
| 20260831233403 | 78 | 192 | 4.0 | 9.0 | 0.00 | 0.00 | 0.00 | 58 | 1013.0 |
| 20260831233303 | 78 | 220 | 6.0 | 9.0 | 0.00 | 0.00 | 0.00 | 58 | 1012.9 |
| 20260831233205 | 78 | 221 | 8.0 | 9.0 | 0.00 | 0.00 | 0.00 | 57 | 1012.8 |
| 20260831233004 | 78 | 219 | 6.0 | 9.0 | 0.00 | 0.00 | 0.00 | 57 | 1012.9 |
| 20260831232907 | 78 | 202 | 7.0 | 10.0 | 0.00 | 0.00 | 0.00 | 57 | 1012.8 |
| 20260831232804 | 78 | 209 | 6.0 | 10.0 | 0.00 | 0.00 | 0.00 | 57 | 1012.8 |
| 20260831232703 | 78 | 183 | 7.0 | 9.0 | 0.00 | 0.00 | 0.00 | 57 | 1012.8 |
| 20260831232606 | 78 | 200 | 6.0 | 9.0 | 0.00 | 0.00 | 0.00 | 57 | 1012.8 |
| 20260831232503 | 78 | 215 | 5.0 | 10.0 | 0.00 | 0.00 | 0.00 | 57 | 1012.8 |
| 20260831232403 | 78 | 202 | 7.0 | 10.0 | 0.00 | 0.00 | 0.00 | 57 | 1012.8 |
| 20260831232203 | 78 | 200 | 6.0 | 10.0 | 0.00 | 0.00 | 0.00 | 57 | 1012.8 |
| 20260831232103 | 78 | 200 | 6.0 | 10.0 | 0.00 | 0.00 | 0.00 | 57 | 1012.8 |
| 20260831232007 | 79 | 195 | 6.0 | 10.0 | 0.00 | 0.00 | 0.00 | 56 | 1012.8 |
| 20260831231904 | 79 | 196 | 5.0 | 10.0 | 0.00 | 0.00 | 0.00 | 57 | 1012.8 |
| 20260831231803 | 79 | 217 | 7.0 | 10.0 | 0.00 | 0.00 | 0.00 | 57 | 1012.8 |
| 20260831231706 | 79 | 206 | 7.0 | 10.0 | 0.00 | 0.00 | 0.00 | 57 | 1012.8 |
| 20260831231503 | 78 | 221 | 9.0 | 11.0 | 0.00 | 0.00 | 0.00 | 56 | 1012.8 |
| 20260831231406 | 78 | 194 | 8.0 | 11.0 | 0.00 | 0.00 | 0.00 | 56 | 1012.7 |
| 20260831231304 | 78 | 219 | 7.0 | 10.0 | 0.00 | 0.00 | 0.00 | 56 | 1012.7 |
| 20260831231204 | 78 | 232 | 7.0 | 10.0 | 0.00 | 0.00 | 0.00 | 56 | 1012.8 |
| 20260831231004 | 78 | 225 | 6.0 | 11.0 | 0.00 | 0.00 | 0.00 | 56 | 1012.8 |
| 20260831230704 | 78 | 232 | 8.0 | 15.0 | 0.00 | 0.00 | 0.00 | 56 | 1012.7 |
| 20260831230603 | 78 | 227 | 7.0 | 15.0 | 0.00 | 0.00 | 0.00 | 56 | 1012.6 |
| 20260831230305 | 78 | 220 | 5.0 | 15.0 | 0.00 | 0.00 | 0.00 | 56 | 1012.6 |
| 20260831230206 | 78 | 215 | 7.0 | 15.0 | 0.00 | 0.00 | 0.00 | 56 | 1012.7 |
| 20260831230104 | 78 | 205 | 7.0 | 15.0 | 0.00 | 0.00 | 0.00 | 56 | 1012.6 |
| 20260831230007 | 78 | 220 | 7.0 | 15.0 | 0.00 | 0.00 | 0.00 | 56 | 1012.7 |
| 20260831225906 | 78 | 215 | 13.0 | 14.0 | 0.00 | 0.00 | 0.00 | 56 | 1012.6 |
| 20260831225804 | 78 | 184 | 8.0 | 9.0 | 0.00 | 0.00 | 0.00 | 56 | 1012.7 |
| 20260831225703 | 78 | 192 | 7.0 | 9.0 | 0.00 | 0.00 | 0.00 | 56 | 1012.7 |
| 20260831225403 | 78 | 198 | 6.0 | 9.0 | 0.00 | 0.00 | 0.00 | 56 | 1012.7 |
| 20260831225204 | 78 | 195 | 5.0 | 9.0 | 0.00 | 0.00 | 0.00 | 56 | 1012.6 |
| 20260831225104 | 78 | 223 | 7.0 | 9.0 | 0.00 | 0.00 | 0.00 | 56 | 1012.6 |
| 20260831225007 | 78 | 185 | 5.0 | 8.0 | 0.00 | 0.00 | 0.00 | 55 | 1012.6 |
| 20260831224903 | 78 | 236 | 5.0 | 7.0 | 0.00 | 0.00 | 0.00 | 55 | 1012.6 |
| 20260831224804 | 78 | 200 | 6.0 | 7.0 | 0.00 | 0.00 | 0.00 | 55 | 1012.7 |
| 20260831224603 | 79 | 234 | 4.0 | 7.0 | 0.00 | 0.00 | 0.00 | 55 | 1012.6 |
| 20260831224503 | 79 | 187 | 4.0 | 10.0 | 0.00 | 0.00 | 0.00 | 55 | 1012.6 |
| 20260831224406 | 79 | 198 | 5.0 | 10.0 | 0.00 | 0.00 | 0.00 | 55 | 1012.6 |
| 20260831224303 | 79 | 213 | 3.0 | 10.0 | 0.00 | 0.00 | 0.00 | 55 | 1012.6 |
| 20260831224004 | 79 | 218 | 4.0 | 10.0 | 0.00 | 0.00 | 0.00 | 55 | 1012.6 |
| 20260831223903 | 79 | 200 | 4.0 | 10.0 | 0.00 | 0.00 | 0.00 | 55 | 1012.6 |
| 20260831223805 | 79 | 206 | 5.0 | 10.0 | 0.00 | 0.00 | 0.00 | 54 | 1012.6 |
| 20260831223704 | 79 | 187 | 3.0 | 10.0 | 0.00 | 0.00 | 0.00 | 54 | 1012.6 |
| 20260831223506 | 79 | 223 | 6.0 | 11.0 | 0.00 | 0.00 | 0.00 | 54 | 1012.5 |
| 20260831223403 | 79 | 192 | 5.0 | 13.0 | 0.00 | 0.00 | 0.00 | 54 | 1012.5 |
| 20260831223303 | 79 | 203 | 4.0 | 13.0 | 0.00 | 0.00 | 0.00 | 54 | 1012.5 |
| 20260831223206 | 79 | 184 | 4.0 | 14.0 | 0.00 | 0.00 | 0.00 | 54 | 1012.5 |
| 20260831223103 | 79 | 209 | 7.0 | 14.0 | 0.00 | 0.00 | 0.00 | 54 | 1012.5 |
| 20260831223005 | 80 | 206 | 4.0 | 14.0 | 0.00 | 0.00 | 0.00 | 54 | 1012.5 |
| 20260831222906 | 80 | 204 | 5.0 | 14.0 | 0.00 | 0.00 | 0.00 | 54 | 1012.5 |
| 20260831222803 | 80 | 210 | 7.0 | 14.0 | 0.00 | 0.00 | 0.00 | 54 | 1012.4 |
| 20260831222703 | 80 | 186 | 6.0 | 14.0 | 0.00 | 0.00 | 0.00 | 54 | 1012.4 |
| 20260831222606 | 80 | 213 | 7.0 | 14.0 | 0.00 | 0.00 | 0.00 | 54 | 1012.4 |
| 20260831222503 | 80 | 202 | 7.0 | 14.0 | 0.00 | 0.00 | 0.00 | 54 | 1012.4 |
| 20260831222306 | 80 | 221 | 9.0 | 14.0 | 0.00 | 0.00 | 0.00 | 54 | 1012.4 |
| 20260831222203 | 80 | 209 | 9.0 | 12.0 | 0.00 | 0.00 | 0.00 | 54 | 1012.4 |
| 20260831222103 | 80 | 195 | 7.0 | 12.0 | 0.00 | 0.00 | 0.00 | 54 | 1012.4 |
| 20260831222006 | 80 | 241 | 5.0 | 13.0 | 0.00 | 0.00 | 0.00 | 54 | 1012.4 |
| 20260831221903 | 80 | 219 | 7.0 | 13.0 | 0.00 | 0.00 | 0.00 | 54 | 1012.4 |
| 20260831221803 | 80 | 227 | 7.0 | 15.0 | 0.00 | 0.00 | 0.00 | 54 | 1012.4 |
| 20260831221603 | 80 | 194 | 7.0 | 15.0 | 0.00 | 0.00 | 0.00 | 54 | 1012.4 |
| 20260831221503 | 80 | 222 | 8.0 | 15.0 | 0.00 | 0.00 | 0.00 | 54 | 1012.4 |
| 20260831221406 | 80 | 214 | 8.0 | 15.0 | 0.00 | 0.00 | 0.00 | 54 | 1012.3 |
| 20260831221303 | 80 | 191 | 8.0 | 15.0 | 0.00 | 0.00 | 0.00 | 54 | 1012.3 |
| 20260831221204 | 80 | 218 | 8.0 | 15.0 | 0.00 | 0.00 | 0.00 | 54 | 1012.3 |
| 20260831221105 | 80 | 242 | 10.0 | 15.0 | 0.00 | 0.00 | 0.00 | 54 | 1012.3 |
| 20260831221004 | 80 | 209 | 10.0 | 15.0 | 0.00 | 0.00 | 0.00 | 54 | 1012.3 |
| 20260831220904 | 80 | 225 | 8.0 | 15.0 | 0.00 | 0.00 | 0.00 | 54 | 1012.3 |
| 20260831220806 | 80 | 197 | 8.0 | 13.0 | 0.00 | 0.00 | 0.00 | 54 | 1012.3 |
| 20260831220703 | 79 | 235 | 11.0 | 14.0 | 0.00 | 0.00 | 0.00 | 54 | 1012.3 |
| 20260831220604 | 79 | 200 | 8.0 | 14.0 | 0.00 | 0.00 | 0.00 | 54 | 1012.3 |
| 20260831220506 | 79 | 228 | 7.0 | 14.0 | 0.00 | 0.00 | 0.00 | 54 | 1012.3 |
| 20260831220403 | 79 | 213 | 9.0 | 14.0 | 0.00 | 0.00 | 0.00 | 55 | 1012.3 |
| 20260831220304 | 79 | 196 | 4.0 | 14.0 | 0.00 | 0.00 | 0.00 | 55 | 1012.3 |
| 20260831220206 | 79 | 238 | 12.0 | 16.0 | 0.00 | 0.00 | 0.00 | 55 | 1012.3 |
| 20260831220136 | 79 | 229 | 9.0 | 16.0 | 0.00 | 0.00 | 0.00 | 55 | 1012.3 |
| 20260831215907 | 79 | 200 | 7.0 | 16.0 | 0.00 | 0.00 | 0.00 | 55 | 1012.2 |
| 20260831215804 | 79 | 213 | 11.0 | 16.0 | 0.00 | 0.00 | 0.00 | 55 | 1012.2 |
| 20260831215705 | 79 | 218 | 13.0 | 16.0 | 0.00 | 0.00 | 0.00 | 55 | 1012.2 |
| 20260831215607 | 79 | 194 | 9.0 | 16.0 | 0.00 | 0.00 | 0.00 | 55 | 1012.2 |
| 20260831215504 | 79 | 225 | 9.0 | 16.0 | 0.00 | 0.00 | 0.00 | 55 | 1012.2 |
| 20260831215307 | 79 | 215 | 9.0 | 16.0 | 0.00 | 0.00 | 0.00 | 56 | 1012.2 |
| 20260831215104 | 78 | 217 | 13.0 | 16.0 | 0.00 | 0.00 | 0.00 | 56 | 1012.1 |
| 20260831215007 | 78 | 236 | 8.0 | 12.0 | 0.00 | 0.00 | 0.00 | 56 | 1012.2 |
| 20260831214904 | 78 | 223 | 11.0 | 11.0 | 0.00 | 0.00 | 0.00 | 57 | 1012.3 |
| 20260831214706 | 77 | 219 | 8.0 | 11.0 | 0.00 | 0.00 | 0.00 | 58 | 1012.2 |
| 20260831214604 | 77 | 193 | 5.0 | 11.0 | 0.00 | 0.00 | 0.00 | 58 | 1012.2 |
| 20260831214504 | 77 | 211 | 7.0 | 11.0 | 0.00 | 0.00 | 0.00 | 59 | 1012.2 |
| 20260831214406 | 76 | 194 | 7.0 | 11.0 | 0.00 | 0.00 | 0.00 | 59 | 1012.1 |
| 20260831214304 | 76 | 182 | 4.0 | 8.0 | 0.00 | 0.00 | 0.00 | 59 | 1012.2 |
| 20260831214205 | 76 | 190 | 4.0 | 8.0 | 0.00 | 0.00 | 0.00 | 60 | 1012.1 |
| 20260831214004 | 75 | 207 | 2.0 | 8.0 | 0.00 | 0.00 | 0.00 | 61 | 1012.1 |
| 20260831213807 | 74 | 198 | 5.0 | 9.0 | 0.00 | 0.00 | 0.00 | 62 | 1012.1 |
| 20260831213704 | 74 | 192 | 4.0 | 9.0 | 0.00 | 0.00 | 0.00 | 62 | 1012.1 |
| 20260831213604 | 74 | 214 | 5.0 | 9.0 | 0.00 | 0.00 | 0.00 | 64 | 1012.2 |
| 20260831213507 | 74 | 194 | 3.0 | 9.0 | 0.00 | 0.00 | 0.00 | 64 | 1012.2 |
| 20260831213404 | 73 | 196 | 4.0 | 9.0 | 0.00 | 0.00 | 0.00 | 64 | 1012.1 |
| 20260831213304 | 73 | 242 | 2.0 | 9.0 | 0.00 | 0.00 | 0.00 | 64 | 1012.2 |
| 20260831213207 | 73 | 240 | 4.0 | 9.0 | 0.00 | 0.00 | 0.00 | 64 | 1012.2 |
| 20260831213104 | 73 | 191 | 4.0 | 9.0 | 0.00 | 0.00 | 0.00 | 65 | 1012.2 |
| 20260831213005 | 73 | 186 | 6.0 | 9.0 | 0.00 | 0.00 | 0.00 | 67 | 1012.2 |
| 20260831212907 | 73 | 244 | 1.0 | 5.0 | 0.00 | 0.00 | 0.00 | 67 | 1012.2 |
| 20260831212804 | 73 | 216 | 2.0 | 5.0 | 0.00 | 0.00 | 0.00 | 66 | 1012.1 |
| 20260831212704 | 73 | 216 | 2.0 | 5.0 | 0.00 | 0.00 | 0.00 | 66 | 1012.1 |
| 20260831212607 | 73 | 169 | 2.0 | 5.0 | 0.00 | 0.00 | 0.00 | 66 | 1012.1 |
| 20260831212504 | 73 | 199 | 3.0 | 5.0 | 0.00 | 0.00 | 0.00 | 67 | 1012.1 |
| 20260831212407 | 73 | 215 | 2.0 | 5.0 | 0.00 | 0.00 | 0.00 | 67 | 1012.1 |
| 20260831212308 | 73 | 232 | 2.0 | 5.0 | 0.00 | 0.00 | 0.00 | 67 | 1012.1 |
| 20260831212204 | 73 | 208 | 3.0 | 5.0 | 0.00 | 0.00 | 0.00 | 67 | 1012.2 |
| 20260831212105 | 73 | 241 | 2.0 | 5.0 | 0.00 | 0.00 | 0.00 | 67 | 1012.1 |
| 20260831211904 | 73 | 196 | 3.0 | 5.0 | 0.00 | 0.00 | 0.00 | 67 | 1012.1 |
| 20260831211804 | 73 | 32 | 0.0 | 4.0 | 0.00 | 0.00 | 0.00 | 67 | 1012.1 |
| 20260831211707 | 73 | 99 | 1.0 | 4.0 | 0.00 | 0.00 | 0.00 | 66 | 1012.1 |
| 20260831211604 | 73 | 100 | 2.0 | 4.0 | 0.00 | 0.00 | 0.00 | 67 | 1012.1 |
| 20260831211505 | 73 | 98 | 3.0 | 4.0 | 0.00 | 0.00 | 0.00 | 66 | 1012.2 |
| 20260831211406 | 73 | 86 | 1.0 | 4.0 | 0.00 | 0.00 | 0.00 | 66 | 1012.1 |
| 20260831211304 | 73 | 111 | 3.0 | 4.0 | 0.00 | 0.00 | 0.00 | 67 | 1012.1 |
| 20260831211204 | 74 | 86 | 2.0 | 4.0 | 0.00 | 0.00 | 0.00 | 66 | 1012.1 |
| 20260831211106 | 74 | 86 | 2.0 | 4.0 | 0.00 | 0.00 | 0.00 | 65 | 1012.1 |
| 20260831211005 | 74 | 86 | 1.0 | 5.0 | 0.00 | 0.00 | 0.00 | 65 | 1012.1 |
| 20260831210905 | 74 | 86 | 3.0 | 5.0 | 0.00 | 0.00 | 0.00 | 65 | 1012.1 |
| 20260831210806 | 74 | 46 | 2.0 | 5.0 | 0.00 | 0.00 | 0.00 | 65 | 1012.1 |
| 20260831210704 | 74 | 46 | 2.0 | 5.0 | 0.00 | 0.00 | 0.00 | 65 | 1012.1 |
| 20260831210605 | 74 | 46 | 3.0 | 5.0 | 0.00 | 0.00 | 0.00 | 65 | 1012.1 |
| 20260831210405 | 74 | 28 | 2.0 | 5.0 | 0.00 | 0.00 | 0.00 | 65 | 1012.1 |
| 20260831210304 | 74 | 23 | 3.0 | 5.0 | 0.00 | 0.00 | 0.00 | 65 | 1012.1 |
| 20260831210207 | 74 | 15 | 2.0 | 5.0 | 0.00 | 0.00 | 0.00 | 65 | 1012.1 |
| 20260831210104 | 74 | 58 | 2.0 | 5.0 | 0.00 | 0.00 | 0.00 | 64 | 1012.1 |
| 20260831210007 | 74 | 40 | 3.0 | 4.0 | 0.00 | 0.00 | 0.00 | 64 | 1012.0 |
| 20260831205804 | 74 | 40 | 3.0 | 4.0 | 0.00 | 0.00 | 0.00 | 64 | 1012.0 |
| 20260831205704 | 74 | 40 | 4.0 | 4.0 | 0.00 | 0.00 | 0.00 | 65 | 1012.0 |
| 20260831205504 | 75 | 11 | 3.0 | 3.0 | 0.00 | 0.00 | 0.00 | 65 | 1012.0 |
| 20260831205404 | 75 | 140 | 1.0 | 3.0 | 0.00 | 0.00 | 0.00 | 65 | 1012.0 |
| 20260831205307 | 75 | 140 | 1.0 | 3.0 | 0.00 | 0.00 | 0.00 | 64 | 1011.9 |
| 20260831205007 | 75 | 140 | 2.0 | 3.0 | 0.00 | 0.00 | 0.00 | 63 | 1011.9 |
| 20260831204904 | 75 | 140 | 1.0 | 3.0 | 0.00 | 0.00 | 0.00 | 63 | 1012.0 |
| 20260831204706 | 76 | 140 | 3.0 | 5.0 | 0.00 | 0.00 | 0.00 | 62 | 1011.9 |
| 20260831204604 | 76 | 140 | 2.0 | 5.0 | 0.00 | 0.00 | 0.00 | 62 | 1011.9 |
| 20260831204407 | 76 | 153 | 1.0 | 5.0 | 0.00 | 0.00 | 0.00 | 62 | 1011.9 |
| 20260831204204 | 76 | 153 | 0.0 | 5.0 | 0.00 | 0.00 | 0.00 | 62 | 1011.9 |
| 20260831204109 | 76 | 153 | 0.0 | 5.0 | 0.00 | 0.00 | 0.00 | 61 | 1011.9 |
| 20260831204004 | 76 | 153 | 0.0 | 6.0 | 0.00 | 0.00 | 0.00 | 61 | 1011.9 |
| 20260831203904 | 76 | 153 | 2.0 | 6.0 | 0.00 | 0.00 | 0.00 | 61 | 1011.9 |
| 20260831203807 | 76 | 192 | 3.0 | 6.0 | 0.00 | 0.00 | 0.00 | 61 | 1011.9 |
| 20260831203704 | 76 | 216 | 2.0 | 6.0 | 0.00 | 0.00 | 0.00 | 61 | 1011.8 |
| 20260831203604 | 76 | 216 | 2.0 | 7.0 | 0.00 | 0.00 | 0.00 | 61 | 1011.8 |
| 20260831203506 | 76 | 225 | 3.0 | 8.0 | 0.00 | 0.00 | 0.00 | 61 | 1011.8 |
| 20260831203405 | 76 | 150 | 2.0 | 8.0 | 0.00 | 0.00 | 0.00 | 61 | 1011.8 |
| 20260831203307 | 76 | 150 | 1.0 | 8.0 | 0.00 | 0.00 | 0.00 | 61 | 1011.8 |
| 20260831203104 | 76 | 139 | 4.0 | 8.0 | 0.00 | 0.00 | 0.00 | 61 | 1011.8 |
| 20260831203006 | 76 | 144 | 5.0 | 8.0 | 0.00 | 0.00 | 0.00 | 61 | 1011.7 |
| 20260831202906 | 76 | 144 | 2.0 | 8.0 | 0.00 | 0.00 | 0.00 | 61 | 1011.7 |
| 20260831202704 | 77 | 147 | 1.0 | 8.0 | 0.00 | 0.00 | 0.00 | 61 | 1011.7 |
| 20260831202506 | 77 | 134 | 8.0 | 8.0 | 0.00 | 0.00 | 0.00 | 61 | 1011.7 |
| 20260831202406 | 77 | 140 | 7.0 | 7.0 | 0.00 | 0.00 | 0.00 | 61 | 1011.7 |
| 20260831202307 | 77 | 141 | 5.0 | 7.0 | 0.00 | 0.00 | 0.00 | 60 | 1011.7 |
| 20260831202205 | 77 | 144 | 3.0 | 7.0 | 0.00 | 0.00 | 0.00 | 60 | 1011.7 |
| 20260831202104 | 77 | 134 | 4.0 | 7.0 | 0.00 | 0.00 | 0.00 | 60 | 1011.8 |
| 20260831202007 | 77 | 130 | 5.0 | 7.0 | 0.00 | 0.00 | 0.00 | 60 | 1011.8 |
| 20260831201905 | 77 | 138 | 6.0 | 7.0 | 0.00 | 0.00 | 0.00 | 60 | 1011.7 |
| 20260831201804 | 77 | 138 | 4.0 | 7.0 | 0.00 | 0.00 | 0.00 | 60 | 1011.8 |
| 20260831201706 | 77 | 123 | 5.0 | 7.0 | 0.00 | 0.00 | 0.00 | 60 | 1011.7 |
| 20260831201604 | 77 | 117 | 5.0 | 7.0 | 0.00 | 0.00 | 0.00 | 60 | 1011.8 |
| 20260831201504 | 78 | 129 | 5.0 | 7.0 | 0.00 | 0.00 | 0.00 | 60 | 1011.8 |
| 20260831201409 | 78 | 121 | 5.0 | 7.0 | 0.00 | 0.00 | 0.00 | 59 | 1011.7 |
| 20260831201204 | 78 | 128 | 5.0 | 7.0 | 0.00 | 0.00 | 0.00 | 59 | 1011.8 |
| 20260831201108 | 78 | 112 | 5.0 | 7.0 | 0.00 | 0.00 | 0.00 | 59 | 1011.8 |
| 20260831200905 | 78 | 117 | 4.0 | 7.0 | 0.00 | 0.00 | 0.00 | 58 | 1011.8 |
| 20260831200807 | 78 | 107 | 4.0 | 7.0 | 0.00 | 0.00 | 0.00 | 58 | 1011.8 |
| 20260831200704 | 79 | 125 | 5.0 | 7.0 | 0.00 | 0.00 | 0.00 | 59 | 1011.8 |
| 20260831200604 | 79 | 70 | 2.0 | 7.0 | 0.00 | 0.00 | 0.00 | 58 | 1011.8 |
| 20260831200507 | 79 | 120 | 2.0 | 7.0 | 0.00 | 0.00 | 0.00 | 58 | 1011.8 |
| 20260831200404 | 79 | 100 | 6.0 | 7.0 | 0.00 | 0.00 | 0.00 | 57 | 1011.8 |
| 20260831200305 | 79 | 92 | 7.0 | 7.0 | 0.00 | 0.00 | 0.00 | 57 | 1011.8 |
| 20260831200206 | 79 | 98 | 2.0 | 7.0 | 0.00 | 0.00 | 0.00 | 57 | 1011.9 |
| 20260831200119 | 79 | 109 | 4.0 | 7.0 | 0.00 | 0.00 | 0.00 | 57 | 1011.9 |
| 20260831200008 | 79 | 121 | 2.0 | 7.0 | 0.00 | 0.00 | 0.00 | 57 | 1011.9 |
| 20260831195804 | 80 | 127 | 4.0 | 12.0 | 0.00 | 0.00 | 0.00 | 56 | 1011.9 |
| 20260831195704 | 80 | 169 | 4.0 | 12.0 | 0.00 | 0.00 | 0.00 | 57 | 1011.9 |
| 20260831195606 | 80 | 77 | 3.0 | 12.0 | 0.00 | 0.00 | 0.00 | 56 | 1011.9 |
| 20260831195506 | 80 | 89 | 3.0 | 12.0 | 0.00 | 0.00 | 0.00 | 56 | 1011.9 |
| 20260831195404 | 80 | 205 | 1.0 | 12.0 | 0.00 | 0.00 | 0.00 | 56 | 1011.8 |
| 20260831195308 | 80 | 161 | 2.0 | 12.0 | 0.00 | 0.00 | 0.00 | 56 | 1011.8 |
| 20260831195205 | 80 | 192 | 5.0 | 12.0 | 0.00 | 0.00 | 0.00 | 56 | 1011.8 |
| 20260831195010 | 80 | 179 | 3.0 | 12.0 | 0.00 | 0.00 | 0.00 | 56 | 1011.8 |
| 20260831194905 | 80 | 182 | 3.0 | 12.0 | 0.00 | 0.00 | 0.00 | 56 | 1011.7 |
| 20260831194604 | 80 | 188 | 5.0 | 10.0 | 0.00 | 0.00 | 0.00 | 56 | 1011.7 |
| 20260831194505 | 80 | 182 | 6.0 | 10.0 | 0.00 | 0.00 | 0.00 | 57 | 1011.7 |
| 20260831194406 | 80 | 184 | 7.0 | 10.0 | 0.00 | 0.00 | 0.00 | 57 | 1011.7 |
| 20260831194305 | 80 | 190 | 6.0 | 10.0 | 0.00 | 0.00 | 0.00 | 57 | 1011.7 |
| 20260831194109 | 80 | 184 | 5.0 | 10.0 | 0.00 | 0.00 | 0.00 | 57 | 1011.7 |
| 20260831194021 | 80 | 186 | 6.0 | 10.0 | 0.00 | 0.00 | 0.00 | 57 | 1011.7 |
| 20260831193904 | 80 | 190 | 11.0 | 11.0 | 0.00 | 0.00 | 0.00 | 57 | 1011.7 |
| 20260831193807 | 80 | 198 | 4.0 | 8.0 | 0.00 | 0.00 | 0.00 | 57 | 1011.8 |
| 20260831193704 | 80 | 191 | 7.0 | 11.0 | 0.00 | 0.00 | 0.00 | 57 | 1011.7 |
| 20260831193604 | 80 | 209 | 6.0 | 13.0 | 0.00 | 0.00 | 0.00 | 57 | 1011.7 |
| 20260831193507 | 80 | 212 | 4.0 | 13.0 | 0.00 | 0.00 | 0.00 | 57 | 1011.7 |
| 20260831193404 | 80 | 180 | 6.0 | 13.0 | 0.00 | 0.00 | 0.00 | 57 | 1011.8 |
| 20260831193310 | 80 | 194 | 2.0 | 13.0 | 0.00 | 0.00 | 0.00 | 57 | 1011.8 |
| 20260831193207 | 80 | 193 | 6.0 | 13.0 | 0.00 | 0.00 | 0.00 | 57 | 1011.7 |
| 20260831193104 | 80 | 197 | 3.0 | 13.0 | 0.00 | 0.00 | 0.00 | 57 | 1011.8 |
| 20260831193004 | 80 | 192 | 6.0 | 13.0 | 0.00 | 0.00 | 0.00 | 57 | 1011.8 |
| 20260831192907 | 80 | 189 | 7.0 | 13.0 | 0.00 | 0.00 | 0.00 | 57 | 1011.8 |
| 20260831192805 | 80 | 183 | 5.0 | 13.0 | 0.00 | 0.00 | 0.00 | 57 | 1011.7 |
| 20260831192704 | 80 | 190 | 9.0 | 14.0 | 0.00 | 0.00 | 0.00 | 58 | 1011.7 |
| 20260831192607 | 80 | 173 | 6.0 | 14.0 | 0.00 | 0.00 | 0.00 | 58 | 1011.7 |
| 20260831192504 | 80 | 186 | 9.0 | 14.0 | 0.00 | 0.00 | 0.00 | 58 | 1011.7 |
| 20260831192404 | 80 | 165 | 4.0 | 14.0 | 0.00 | 0.00 | 0.00 | 58 | 1011.7 |
| 20260831192306 | 80 | 200 | 7.0 | 14.0 | 0.00 | 0.00 | 0.00 | 58 | 1011.8 |
| 20260831192204 | 79 | 203 | 7.0 | 14.0 | 0.00 | 0.00 | 0.00 | 59 | 1011.8 |
| 20260831192008 | 79 | 196 | 7.0 | 14.0 | 0.00 | 0.00 | 0.00 | 59 | 1011.8 |
| 20260831191804 | 78 | 188 | 9.0 | 14.0 | 0.00 | 0.00 | 0.00 | 60 | 1011.8 |
| 20260831191706 | 78 | 164 | 6.0 | 14.0 | 0.00 | 0.00 | 0.00 | 61 | 1011.8 |
| 20260831191605 | 78 | 169 | 6.0 | 10.0 | 0.00 | 0.00 | 0.00 | 61 | 1011.9 |
| 20260831191504 | 78 | 167 | 4.0 | 10.0 | 0.00 | 0.00 | 0.00 | 62 | 1011.9 |
| 20260831191304 | 77 | 180 | 6.0 | 10.0 | 0.00 | 0.00 | 0.00 | 62 | 1011.9 |
| 20260831191204 | 77 | 187 | 8.0 | 10.0 | 0.00 | 0.00 | 0.00 | 63 | 1011.9 |
| 20260831191106 | 77 | 202 | 7.0 | 10.0 | 0.00 | 0.00 | 0.00 | 62 | 1011.9 |
| 20260831191004 | 77 | 229 | 7.0 | 9.0 | 0.00 | 0.00 | 0.00 | 63 | 1012.0 |
| 20260831190904 | 77 | 204 | 5.0 | 9.0 | 0.00 | 0.00 | 0.00 | 63 | 1011.9 |
| 20260831190806 | 77 | 194 | 7.0 | 9.0 | 0.00 | 0.00 | 0.00 | 63 | 1011.9 |
| 20260831190704 | 77 | 200 | 6.0 | 9.0 | 0.00 | 0.00 | 0.00 | 63 | 1012.0 |
| 20260831190604 | 77 | 207 | 9.0 | 9.0 | 0.00 | 0.00 | 0.00 | 62 | 1011.9 |
| 20260831190506 | 77 | 191 | 1.0 | 4.0 | 0.00 | 0.00 | 0.00 | 63 | 1011.9 |
| 20260831190404 | 77 | 191 | 2.0 | 5.0 | 0.00 | 0.00 | 0.00 | 63 | 1011.9 |
| 20260831190304 | 77 | 191 | 1.0 | 5.0 | 0.00 | 0.00 | 0.00 | 63 | 1011.9 |
| 20260831190206 | 77 | 191 | 1.0 | 5.0 | 0.00 | 0.00 | 0.00 | 63 | 1011.9 |
| 20260831190105 | 77 | 191 | 2.0 | 5.0 | 0.00 | 0.00 | 0.00 | 63 | 1011.9 |
| 20260831185907 | 77 | 175 | 3.0 | 6.0 | 0.00 | 0.00 | 0.00 | 62 | 1011.9 |
| 20260831185805 | 77 | 169 | 1.0 | 6.0 | 0.00 | 0.00 | 0.00 | 62 | 1011.8 |
| 20260831185704 | 77 | 169 | 2.0 | 6.0 | 0.00 | 0.00 | 0.00 | 62 | 1011.8 |
| 20260831185606 | 77 | 173 | 1.0 | 6.0 | 0.00 | 0.00 | 0.00 | 63 | 1011.7 |
| 20260831185504 | 78 | 173 | 2.0 | 6.0 | 0.00 | 0.00 | 0.00 | 63 | 1011.7 |
| 20260831185404 | 78 | 171 | 3.0 | 6.0 | 0.00 | 0.00 | 0.00 | 63 | 1011.7 |
| 20260831185008 | 78 | 178 | 1.0 | 6.0 | 0.00 | 0.00 | 0.00 | 63 | 1011.7 |
| 20260831184904 | 78 | 177 | 6.0 | 6.0 | 0.00 | 0.00 | 0.00 | 63 | 1011.6 |
| 20260831184804 | 78 | 183 | 5.0 | 6.0 | 0.00 | 0.00 | 0.00 | 63 | 1011.6 |
| 20260831184706 | 78 | 204 | 4.0 | 6.0 | 0.00 | 0.00 | 0.00 | 62 | 1011.6 |
| 20260831184604 | 78 | 179 | 2.0 | 6.0 | 0.00 | 0.00 | 0.00 | 63 | 1011.7 |
| 20260831184504 | 78 | 189 | 1.0 | 6.0 | 0.00 | 0.00 | 0.00 | 62 | 1011.6 |
| 20260831184406 | 78 | 179 | 3.0 | 6.0 | 0.00 | 0.00 | 0.00 | 62 | 1011.6 |
| 20260831184304 | 78 | 175 | 3.0 | 6.0 | 0.00 | 0.00 | 0.00 | 62 | 1011.6 |
| 20260831184107 | 78 | 165 | 2.0 | 6.0 | 0.00 | 0.00 | 0.00 | 62 | 1011.6 |
| 20260831184006 | 78 | 188 | 4.0 | 6.0 | 0.00 | 0.00 | 0.00 | 62 | 1011.5 |
| 20260831183904 | 78 | 186 | 4.0 | 6.0 | 0.00 | 0.00 | 0.00 | 62 | 1011.5 |
| 20260831183806 | 78 | 188 | 4.0 | 6.0 | 0.00 | 0.00 | 0.00 | 62 | 1011.5 |
| 20260831183706 | 78 | 179 | 5.0 | 6.0 | 0.00 | 0.00 | 0.00 | 62 | 1011.5 |
| 20260831183507 | 78 | 186 | 6.0 | 6.0 | 0.00 | 0.00 | 0.00 | 62 | 1011.5 |
| 20260831183404 | 78 | 175 | 4.0 | 6.0 | 0.00 | 0.00 | 0.00 | 62 | 1011.5 |
| 20260831183304 | 78 | 211 | 4.0 | 6.0 | 0.00 | 0.00 | 0.00 | 62 | 1011.6 |
| 20260831183207 | 78 | 196 | 4.0 | 6.0 | 0.00 | 0.00 | 0.00 | 62 | 1011.5 |
| 20260831183104 | 78 | 173 | 4.0 | 6.0 | 0.00 | 0.00 | 0.00 | 62 | 1011.5 |
| 20260831183006 | 78 | 171 | 4.0 | 6.0 | 0.00 | 0.00 | 0.00 | 62 | 1011.5 |
| 20260831182909 | 78 | 173 | 4.0 | 6.0 | 0.00 | 0.00 | 0.00 | 62 | 1011.5 |
| 20260831182804 | 79 | 178 | 6.0 | 6.0 | 0.00 | 0.00 | 0.00 | 61 | 1011.5 |
| 20260831182704 | 79 | 185 | 4.0 | 6.0 | 0.00 | 0.00 | 0.00 | 61 | 1011.5 |
| 20260831182607 | 79 | 195 | 4.0 | 6.0 | 0.00 | 0.00 | 0.00 | 61 | 1011.5 |
| 20260831182505 | 79 | 195 | 4.0 | 6.0 | 0.00 | 0.00 | 0.00 | 61 | 1011.5 |
| 20260831182404 | 79 | 195 | 3.0 | 6.0 | 0.00 | 0.00 | 0.00 | 61 | 1011.5 |
| 20260831182306 | 80 | 196 | 0.0 | 6.0 | 0.00 | 0.00 | 0.00 | 59 | 1011.5 |
| 20260831182203 | 80 | 196 | 0.0 | 6.0 | 0.00 | 0.00 | 0.00 | 59 | 1011.5 |
| 20260831182104 | 80 | 196 | 1.0 | 6.0 | 0.00 | 0.00 | 0.00 | 59 | 1011.4 |
| 20260831182011 | 80 | 196 | 3.0 | 6.0 | 0.00 | 0.00 | 0.00 | 59 | 1011.4 |
| 20260831181904 | 80 | 198 | 5.0 | 5.0 | 0.00 | 0.00 | 0.00 | 59 | 1011.4 |
| 20260831181803 | 80 | 236 | 2.0 | 3.0 | 0.00 | 0.00 | 0.00 | 58 | 1011.4 |
| 20260831181706 | 81 | 236 | 0.0 | 3.0 | 0.00 | 0.00 | 0.00 | 58 | 1011.3 |
| 20260831181604 | 81 | 236 | 1.0 | 3.0 | 0.00 | 0.00 | 0.00 | 58 | 1011.4 |
| 20260831181504 | 81 | 236 | 0.0 | 3.0 | 0.00 | 0.00 | 0.00 | 58 | 1011.4 |
| 20260831181407 | 81 | 236 | 1.0 | 3.0 | 0.00 | 0.00 | 0.00 | 57 | 1011.4 |
| 20260831181304 | 81 | 236 | 2.0 | 4.0 | 0.00 | 0.00 | 0.00 | 57 | 1011.4 |
| 20260831181206 | 82 | 236 | 2.0 | 4.0 | 0.00 | 0.00 | 0.00 | 57 | 1011.4 |
| 20260831180904 | 82 | 250 | 2.0 | 4.0 | 0.00 | 0.00 | 0.00 | 56 | 1011.3 |
| 20260831180807 | 83 | 40 | 0.0 | 4.0 | 0.00 | 0.00 | 0.00 | 56 | 1011.3 |
| 20260831180704 | 83 | 40 | 0.0 | 4.0 | 0.00 | 0.00 | 0.00 | 55 | 1011.3 |
| 20260831180604 | 83 | 40 | 0.0 | 4.0 | 0.00 | 0.00 | 0.00 | 55 | 1011.3 |
| 20260831180507 | 83 | 40 | 1.0 | 4.0 | 0.00 | 0.00 | 0.00 | 53 | 1011.3 |
| 20260831180404 | 83 | 40 | 2.0 | 6.0 | 0.00 | 0.00 | 0.00 | 53 | 1011.3 |
| 20260831180208 | 83 | 37 | 3.0 | 6.0 | 0.00 | 0.00 | 0.00 | 53 | 1011.3 |
| 20260831180129 | 84 | 34 | 3.0 | 7.0 | 0.00 | 0.00 | 0.00 | 53 | 1011.3 |
| 20260831180007 | 84 | 42 | 2.0 | 7.0 | 0.00 | 0.00 | 0.00 | 53 | 1011.3 |
| 20260831175906 | 84 | 41 | 2.0 | 7.0 | 0.00 | 0.00 | 0.00 | 52 | 1011.4 |
| 20260831175704 | 84 | 63 | 4.0 | 7.0 | 0.00 | 0.00 | 0.00 | 52 | 1011.3 |
| 20260831175404 | 84 | 88 | 3.0 | 7.0 | 0.00 | 0.00 | 0.00 | 52 | 1011.3 |
| 20260831175306 | 84 | 69 | 2.0 | 7.0 | 0.00 | 0.00 | 0.00 | 52 | 1011.3 |
| 20260831175204 | 84 | 69 | 3.0 | 7.0 | 0.00 | 0.00 | 0.00 | 52 | 1011.4 |
| 20260831175103 | 84 | 69 | 2.0 | 7.0 | 0.00 | 0.00 | 0.00 | 52 | 1011.4 |
| 20260831175008 | 84 | 76 | 7.0 | 7.0 | 0.00 | 0.00 | 0.00 | 52 | 1011.4 |
| 20260831174904 | 84 | 67 | 5.0 | 9.0 | 0.00 | 0.00 | 0.00 | 52 | 1011.4 |
| 20260831174804 | 84 | 99 | 2.0 | 9.0 | 0.00 | 0.00 | 0.00 | 52 | 1011.4 |
| 20260831174604 | 84 | 144 | 3.0 | 9.0 | 0.00 | 0.00 | 0.00 | 52 | 1011.3 |
| 20260831174504 | 84 | 101 | 1.0 | 9.0 | 0.00 | 0.00 | 0.00 | 52 | 1011.4 |
| 20260831174407 | 84 | 82 | 2.0 | 9.0 | 0.00 | 0.00 | 0.00 | 51 | 1011.4 |
| 20260831174304 | 84 | 117 | 5.0 | 9.0 | 0.00 | 0.00 | 0.00 | 52 | 1011.4 |
| 20260831174204 | 84 | 134 | 5.0 | 9.0 | 0.00 | 0.00 | 0.00 | 52 | 1011.4 |
| 20260831174107 | 84 | 46 | 3.0 | 9.0 | 0.00 | 0.00 | 0.00 | 51 | 1011.4 |
| 20260831174006 | 84 | 94 | 8.0 | 9.0 | 0.00 | 0.00 | 0.00 | 51 | 1011.4 |
| 20260831173806 | 84 | 137 | 6.0 | 8.0 | 0.00 | 0.00 | 0.00 | 51 | 1011.4 |
| 20260831173305 | 85 | 170 | 2.0 | 5.0 | 0.00 | 0.00 | 0.00 | 50 | 1011.4 |
| 20260831173104 | 85 | 172 | 4.0 | 7.0 | 0.00 | 0.00 | 0.00 | 50 | 1011.4 |
| 20260831173005 | 85 | 172 | 3.0 | 7.0 | 0.00 | 0.00 | 0.00 | 49 | 1011.3 |
| 20260831172906 | 85 | 134 | 1.0 | 7.0 | 0.00 | 0.00 | 0.00 | 49 | 1011.4 |
| 20260831172804 | 85 | 134 | 3.0 | 7.0 | 0.00 | 0.00 | 0.00 | 49 | 1011.4 |
| 20260831172705 | 85 | 140 | 2.0 | 10.0 | 0.00 | 0.00 | 0.00 | 49 | 1011.4 |
| 20260831172606 | 86 | 198 | 4.0 | 10.0 | 0.00 | 0.00 | 0.00 | 49 | 1011.4 |
| 20260831172504 | 86 | 151 | 4.0 | 10.0 | 0.00 | 0.00 | 0.00 | 49 | 1011.3 |
| 20260831172406 | 86 | 149 | 3.0 | 10.0 | 0.00 | 0.00 | 0.00 | 49 | 1011.3 |
| 20260831172010 | 86 | 170 | 5.0 | 10.0 | 0.00 | 0.00 | 0.00 | 49 | 1011.3 |
| 20260831171904 | 86 | 165 | 1.0 | 10.0 | 0.00 | 0.00 | 0.00 | 49 | 1011.3 |
| 20260831171804 | 86 | 112 | 3.0 | 10.0 | 0.00 | 0.00 | 0.00 | 49 | 1011.3 |
| 20260831171707 | 86 | 134 | 6.0 | 10.0 | 0.00 | 0.00 | 0.00 | 48 | 1011.3 |
| 20260831171604 | 86 | 126 | 4.0 | 13.0 | 0.00 | 0.00 | 0.00 | 48 | 1011.3 |
| 20260831171504 | 86 | 154 | 4.0 | 13.0 | 0.00 | 0.00 | 0.00 | 48 | 1011.3 |
| 20260831171304 | 86 | 124 | 4.0 | 13.0 | 0.00 | 0.00 | 0.00 | 48 | 1011.3 |
| 20260831171205 | 86 | 98 | 3.0 | 13.0 | 0.00 | 0.00 | 0.00 | 48 | 1011.3 |
| 20260831171004 | 86 | 121 | 5.0 | 13.0 | 0.00 | 0.00 | 0.00 | 48 | 1011.3 |
| 20260831170904 | 87 | 121 | 7.0 | 13.0 | 0.00 | 0.00 | 0.00 | 48 | 1011.2 |
| 20260831170806 | 87 | 86 | 5.0 | 13.0 | 0.00 | 0.00 | 0.00 | 48 | 1011.3 |
| 20260831170704 | 87 | 94 | 6.0 | 13.0 | 0.00 | 0.00 | 0.00 | 48 | 1011.2 |
| 20260831170604 | 87 | 78 | 8.0 | 12.0 | 0.00 | 0.00 | 0.00 | 48 | 1011.3 |
| 20260831170507 | 87 | 84 | 7.0 | 12.0 | 0.00 | 0.00 | 0.00 | 48 | 1011.3 |
| 20260831170404 | 87 | 58 | 8.0 | 12.0 | 0.00 | 0.00 | 0.00 | 48 | 1011.3 |
| 20260831170304 | 87 | 128 | 9.0 | 11.0 | 0.00 | 0.00 | 0.00 | 49 | 1011.3 |
| 20260831170206 | 87 | 98 | 6.0 | 12.0 | 0.00 | 0.00 | 0.00 | 48 | 1011.4 |
| 20260831170104 | 87 | 88 | 5.0 | 12.0 | 0.00 | 0.00 | 0.00 | 48 | 1011.4 |
| 20260831170008 | 87 | 95 | 10.0 | 12.0 | 0.00 | 0.00 | 0.00 | 48 | 1011.4 |
| 20260831165907 | 87 | 86 | 7.0 | 12.0 | 0.00 | 0.00 | 0.00 | 48 | 1011.4 |
| 20260831165804 | 87 | 113 | 4.0 | 12.0 | 0.00 | 0.00 | 0.00 | 48 | 1011.4 |
| 20260831165704 | 87 | 109 | 8.0 | 12.0 | 0.00 | 0.00 | 0.00 | 48 | 1011.3 |
| 20260831165606 | 87 | 103 | 8.0 | 12.0 | 0.00 | 0.00 | 0.00 | 48 | 1011.3 |
| 20260831165504 | 87 | 111 | 5.0 | 12.0 | 0.00 | 0.00 | 0.00 | 48 | 1011.4 |
| 20260831165404 | 88 | 89 | 6.0 | 12.0 | 0.00 | 0.00 | 0.00 | 48 | 1011.4 |
| 20260831165306 | 88 | 86 | 6.0 | 12.0 | 0.00 | 0.00 | 0.00 | 47 | 1011.4 |
| 20260831165204 | 88 | 86 | 8.0 | 12.0 | 0.00 | 0.00 | 0.00 | 47 | 1011.4 |
| 20260831165007 | 88 | 80 | 6.0 | 11.0 | 0.00 | 0.00 | 0.00 | 48 | 1011.4 |
| 20260831164904 | 88 | 82 | 9.0 | 11.0 | 0.00 | 0.00 | 0.00 | 48 | 1011.4 |
| 20260831164804 | 88 | 107 | 7.0 | 11.0 | 0.00 | 0.00 | 0.00 | 47 | 1011.4 |
| 20260831164706 | 88 | 90 | 9.0 | 12.0 | 0.00 | 0.00 | 0.00 | 47 | 1011.4 |
| 20260831164604 | 88 | 107 | 4.0 | 12.0 | 0.00 | 0.00 | 0.00 | 48 | 1011.5 |
| 20260831164504 | 88 | 109 | 4.0 | 12.0 | 0.00 | 0.00 | 0.00 | 47 | 1011.4 |
| 20260831164407 | 88 | 85 | 8.0 | 12.0 | 0.00 | 0.00 | 0.00 | 47 | 1011.5 |
| 20260831164304 | 88 | 108 | 8.0 | 12.0 | 0.00 | 0.00 | 0.00 | 47 | 1011.5 |
| 20260831164107 | 88 | 78 | 10.0 | 12.0 | 0.00 | 0.00 | 0.00 | 47 | 1011.5 |
| 20260831164006 | 88 | 96 | 7.0 | 12.0 | 0.00 | 0.00 | 0.00 | 47 | 1011.4 |
| 20260831163904 | 89 | 90 | 8.0 | 12.0 | 0.00 | 0.00 | 0.00 | 47 | 1011.5 |
| 20260831163807 | 89 | 79 | 6.0 | 12.0 | 0.00 | 0.00 | 0.00 | 47 | 1011.5 |
| 20260831163704 | 89 | 116 | 11.0 | 11.0 | 0.00 | 0.00 | 0.00 | 47 | 1011.5 |
| 20260831163604 | 89 | 122 | 7.0 | 11.0 | 0.00 | 0.00 | 0.00 | 46 | 1011.5 |
| 20260831163509 | 89 | 117 | 5.0 | 10.0 | 0.00 | 0.00 | 0.00 | 47 | 1011.5 |
| 20260831163304 | 89 | 108 | 7.0 | 10.0 | 0.00 | 0.00 | 0.00 | 46 | 1011.5 |
| 20260831163208 | 89 | 124 | 7.0 | 11.0 | 0.00 | 0.00 | 0.00 | 46 | 1011.5 |
| 20260831163104 | 89 | 99 | 8.0 | 11.0 | 0.00 | 0.00 | 0.00 | 46 | 1011.5 |
| 20260831163007 | 89 | 111 | 7.0 | 11.0 | 0.00 | 0.00 | 0.00 | 46 | 1011.5 |
| 20260831162804 | 89 | 133 | 6.0 | 12.0 | 0.00 | 0.00 | 0.00 | 46 | 1011.5 |
| 20260831162705 | 89 | 110 | 5.0 | 12.0 | 0.00 | 0.00 | 0.00 | 46 | 1011.5 |
| 20260831162607 | 89 | 113 | 9.0 | 12.0 | 0.00 | 0.00 | 0.00 | 45 | 1011.5 |
| 20260831162504 | 89 | 92 | 6.0 | 12.0 | 0.00 | 0.00 | 0.00 | 45 | 1011.6 |
| 20260831162404 | 89 | 101 | 9.0 | 12.0 | 0.00 | 0.00 | 0.00 | 45 | 1011.6 |
| 20260831162307 | 89 | 98 | 8.0 | 12.0 | 0.00 | 0.00 | 0.00 | 45 | 1011.5 |
| 20260831162204 | 89 | 88 | 9.0 | 12.0 | 0.00 | 0.00 | 0.00 | 45 | 1011.5 |
| 20260831162104 | 89 | 105 | 7.0 | 12.0 | 0.00 | 0.00 | 0.00 | 45 | 1011.5 |
| 20260831162008 | 90 | 99 | 7.0 | 12.0 | 0.00 | 0.00 | 0.00 | 45 | 1011.5 |
| 20260831161905 | 90 | 115 | 7.0 | 12.0 | 0.00 | 0.00 | 0.00 | 44 | 1011.5 |
| 20260831161804 | 90 | 83 | 10.0 | 12.0 | 0.00 | 0.00 | 0.00 | 45 | 1011.5 |
| 20260831161707 | 90 | 113 | 5.0 | 12.0 | 0.00 | 0.00 | 0.00 | 44 | 1011.5 |
| 20260831161604 | 90 | 121 | 7.0 | 12.0 | 0.00 | 0.00 | 0.00 | 44 | 1011.6 |
| 20260831161504 | 90 | 109 | 10.0 | 12.0 | 0.00 | 0.00 | 0.00 | 45 | 1011.6 |
| 20260831161407 | 90 | 128 | 6.0 | 12.0 | 0.00 | 0.00 | 0.00 | 45 | 1011.5 |
| 20260831161304 | 90 | 84 | 10.0 | 14.0 | 0.00 | 0.00 | 0.00 | 45 | 1011.6 |
| 20260831161106 | 90 | 96 | 7.0 | 14.0 | 0.00 | 0.00 | 0.00 | 45 | 1011.5 |
| 20260831161006 | 90 | 79 | 6.0 | 14.0 | 0.00 | 0.00 | 0.00 | 45 | 1011.5 |
| 20260831160904 | 90 | 108 | 4.0 | 14.0 | 0.00 | 0.00 | 0.00 | 45 | 1011.6 |
| 20260831160603 | 90 | 90 | 7.0 | 14.0 | 0.00 | 0.00 | 0.00 | 44 | 1011.6 |
| 20260831160507 | 90 | 93 | 8.0 | 14.0 | 0.00 | 0.00 | 0.00 | 45 | 1011.6 |
| 20260831160404 | 90 | 84 | 10.0 | 16.0 | 0.00 | 0.00 | 0.00 | 45 | 1011.6 |
| 20260831160305 | 90 | 91 | 9.0 | 16.0 | 0.00 | 0.00 | 0.00 | 45 | 1011.6 |
| 20260831160119 | 90 | 74 | 8.0 | 16.0 | 0.00 | 0.00 | 0.00 | 44 | 1011.6 |
| 20260831160007 | 90 | 78 | 10.0 | 16.0 | 0.00 | 0.00 | 0.00 | 44 | 1011.5 |
| 20260831155906 | 90 | 79 | 7.0 | 16.0 | 0.00 | 0.00 | 0.00 | 44 | 1011.5 |
| 20260831155804 | 90 | 49 | 7.0 | 16.0 | 0.00 | 0.00 | 0.00 | 44 | 1011.6 |
| 20260831155704 | 90 | 34 | 7.0 | 16.0 | 0.00 | 0.00 | 0.00 | 44 | 1011.6 |
| 20260831155606 | 90 | 78 | 9.0 | 16.0 | 0.00 | 0.00 | 0.00 | 45 | 1011.5 |
| 20260831155504 | 90 | 94 | 10.0 | 16.0 | 0.00 | 0.00 | 0.00 | 45 | 1011.5 |
| 20260831155403 | 90 | 83 | 7.0 | 14.0 | 0.00 | 0.00 | 0.00 | 44 | 1011.6 |
| 20260831155306 | 90 | 76 | 12.0 | 14.0 | 0.00 | 0.00 | 0.00 | 44 | 1011.6 |
| 20260831155204 | 90 | 69 | 9.0 | 14.0 | 0.00 | 0.00 | 0.00 | 45 | 1011.6 |
| 20260831155104 | 90 | 53 | 6.0 | 13.0 | 0.00 | 0.00 | 0.00 | 45 | 1011.6 |
| 20260831154804 | 91 | 76 | 10.0 | 15.0 | 0.00 | 0.00 | 0.00 | 44 | 1011.6 |
| 20260831154604 | 91 | 92 | 9.0 | 15.0 | 0.00 | 0.00 | 0.00 | 44 | 1011.5 |
| 20260831154504 | 91 | 103 | 9.0 | 15.0 | 0.00 | 0.00 | 0.00 | 43 | 1011.6 |
| 20260831154407 | 91 | 118 | 9.0 | 15.0 | 0.00 | 0.00 | 0.00 | 44 | 1011.5 |
| 20260831154304 | 91 | 136 | 7.0 | 15.0 | 0.00 | 0.00 | 0.00 | 44 | 1011.5 |
| 20260831154204 | 91 | 96 | 10.0 | 15.0 | 0.00 | 0.00 | 0.00 | 44 | 1011.5 |
| 20260831154106 | 91 | 92 | 9.0 | 15.0 | 0.00 | 0.00 | 0.00 | 45 | 1011.5 |
| 20260831154004 | 91 | 89 | 11.0 | 15.0 | 0.00 | 0.00 | 0.00 | 45 | 1011.6 |
| 20260831153904 | 91 | 57 | 9.0 | 14.0 | 0.00 | 0.00 | 0.00 | 44 | 1011.5 |
| 20260831153806 | 91 | 79 | 9.0 | 14.0 | 0.00 | 0.00 | 0.00 | 45 | 1011.6 |
| 20260831153704 | 91 | 78 | 10.0 | 14.0 | 0.00 | 0.00 | 0.00 | 44 | 1011.6 |
| 20260831153604 | 91 | 61 | 7.0 | 14.0 | 0.00 | 0.00 | 0.00 | 44 | 1011.6 |
| 20260831153507 | 91 | 80 | 11.0 | 14.0 | 0.00 | 0.00 | 0.00 | 44 | 1011.6 |
| 20260831153304 | 91 | 86 | 13.0 | 14.0 | 0.00 | 0.00 | 0.00 | 44 | 1011.7 |
| 20260831153206 | 91 | 97 | 5.0 | 14.0 | 0.00 | 0.00 | 0.00 | 44 | 1011.6 |
| 20260831153104 | 91 | 96 | 11.0 | 14.0 | 0.00 | 0.00 | 0.00 | 43 | 1011.7 |
| 20260831152906 | 91 | 75 | 9.0 | 14.0 | 0.00 | 0.00 | 0.00 | 44 | 1011.6 |
| 20260831152704 | 91 | 86 | 8.0 | 14.0 | 0.00 | 0.00 | 0.00 | 42 | 1011.6 |
| 20260831152404 | 92 | 99 | 8.0 | 13.0 | 0.00 | 0.00 | 0.00 | 43 | 1011.6 |
| 20260831152307 | 92 | 76 | 12.0 | 14.0 | 0.00 | 0.00 | 0.00 | 43 | 1011.6 |
| 20260831152203 | 91 | 46 | 4.0 | 14.0 | 0.00 | 0.00 | 0.00 | 42 | 1011.6 |
| 20260831152104 | 92 | 64 | 5.0 | 14.0 | 0.00 | 0.00 | 0.00 | 41 | 1011.6 |
| 20260831152007 | 92 | 84 | 9.0 | 14.0 | 0.00 | 0.00 | 0.00 | 42 | 1011.6 |
| 20260831151904 | 92 | 22 | 7.0 | 14.0 | 0.00 | 0.00 | 0.00 | 41 | 1011.6 |
| 20260831151804 | 92 | 78 | 11.0 | 14.0 | 0.00 | 0.00 | 0.00 | 42 | 1011.6 |
| 20260831151707 | 92 | 60 | 5.0 | 14.0 | 0.00 | 0.00 | 0.00 | 41 | 1011.7 |
| 20260831151604 | 92 | 78 | 8.0 | 14.0 | 0.00 | 0.00 | 0.00 | 40 | 1011.7 |
| 20260831151406 | 92 | 75 | 11.0 | 14.0 | 0.00 | 0.00 | 0.00 | 41 | 1011.7 |
| 20260831151204 | 92 | 65 | 9.0 | 15.0 | 0.00 | 0.00 | 0.00 | 41 | 1011.7 |
| 20260831151108 | 92 | 97 | 9.0 | 15.0 | 0.00 | 0.00 | 0.00 | 41 | 1011.7 |
| 20260831151005 | 92 | 112 | 9.0 | 15.0 | 0.00 | 0.00 | 0.00 | 43 | 1011.6 |
| 20260831150806 | 92 | 79 | 10.0 | 15.0 | 0.00 | 0.00 | 0.00 | 43 | 1011.7 |
| 20260831150704 | 92 | 77 | 11.0 | 15.0 | 0.00 | 0.00 | 0.00 | 43 | 1011.7 |
| 20260831150604 | 92 | 66 | 12.0 | 15.0 | 0.00 | 0.00 | 0.00 | 43 | 1011.7 |
| 20260831150506 | 92 | 74 | 9.0 | 15.0 | 0.00 | 0.00 | 0.00 | 43 | 1011.7 |
| 20260831150404 | 92 | 82 | 11.0 | 15.0 | 0.00 | 0.00 | 0.00 | 43 | 1011.7 |
| 20260831150304 | 92 | 68 | 9.0 | 15.0 | 0.00 | 0.00 | 0.00 | 42 | 1011.7 |
| 20260831150207 | 92 | 78 | 11.0 | 15.0 | 0.00 | 0.00 | 0.00 | 42 | 1011.7 |
| 20260831150104 | 92 | 66 | 11.0 | 15.0 | 0.00 | 0.00 | 0.00 | 42 | 1011.7 |
| 20260831145906 | 92 | 78 | 7.0 | 14.0 | 0.00 | 0.00 | 0.00 | 42 | 1011.7 |
| 20260831145803 | 92 | 66 | 9.0 | 14.0 | 0.00 | 0.00 | 0.00 | 43 | 1011.7 |
| 20260831145704 | 92 | 76 | 13.0 | 15.0 | 0.00 | 0.00 | 0.00 | 42 | 1011.7 |
| 20260831145606 | 92 | 93 | 8.0 | 14.0 | 0.00 | 0.00 | 0.00 | 41 | 1011.7 |
| 20260831145504 | 92 | 50 | 6.0 | 15.0 | 0.00 | 0.00 | 0.00 | 42 | 1011.7 |
| 20260831145404 | 92 | 78 | 12.0 | 15.0 | 0.00 | 0.00 | 0.00 | 43 | 1011.7 |
| 20260831145306 | 92 | 72 | 10.0 | 15.0 | 0.00 | 0.00 | 0.00 | 42 | 1011.7 |
| 20260831145204 | 92 | 84 | 11.0 | 15.0 | 0.00 | 0.00 | 0.00 | 42 | 1011.7 |
| 20260831145104 | 92 | 96 | 14.0 | 15.0 | 0.00 | 0.00 | 0.00 | 41 | 1011.7 |
| 20260831145007 | 92 | 80 | 10.0 | 15.0 | 0.00 | 0.00 | 0.00 | 41 | 1011.7 |
| 20260831144904 | 92 | 98 | 10.0 | 15.0 | 0.00 | 0.00 | 0.00 | 43 | 1011.7 |
| 20260831144805 | 92 | 77 | 8.0 | 15.0 | 0.00 | 0.00 | 0.00 | 42 | 1011.6 |
| 20260831144706 | 92 | 95 | 8.0 | 15.0 | 0.00 | 0.00 | 0.00 | 42 | 1011.6 |
| 20260831144504 | 92 | 85 | 10.0 | 13.0 | 0.00 | 0.00 | 0.00 | 42 | 1011.7 |
| 20260831144407 | 92 | 74 | 5.0 | 13.0 | 0.00 | 0.00 | 0.00 | 42 | 1011.7 |
| 20260831144204 | 93 | 74 | 5.0 | 13.0 | 0.00 | 0.00 | 0.00 | 42 | 1011.6 |
| 20260831144006 | 93 | 109 | 10.0 | 15.0 | 0.00 | 0.00 | 0.00 | 42 | 1011.6 |
| 20260831143904 | 93 | 120 | 7.0 | 15.0 | 0.00 | 0.00 | 0.00 | 41 | 1011.7 |
| 20260831143806 | 93 | 94 | 7.0 | 15.0 | 0.00 | 0.00 | 0.00 | 41 | 1011.6 |
| 20260831143704 | 93 | 99 | 10.0 | 15.0 | 0.00 | 0.00 | 0.00 | 42 | 1011.6 |
| 20260831143604 | 93 | 79 | 11.0 | 15.0 | 0.00 | 0.00 | 0.00 | 41 | 1011.6 |
| 20260831143404 | 93 | 54 | 11.0 | 15.0 | 0.00 | 0.00 | 0.00 | 40 | 1011.6 |
| 20260831143206 | 93 | 34 | 6.0 | 15.0 | 0.00 | 0.00 | 0.00 | 40 | 1011.6 |
| 20260831143104 | 93 | 69 | 9.0 | 15.0 | 0.00 | 0.00 | 0.00 | 40 | 1011.6 |
| 20260831143005 | 93 | 67 | 12.0 | 15.0 | 0.00 | 0.00 | 0.00 | 40 | 1011.6 |
| 20260831142906 | 93 | 69 | 12.0 | 15.0 | 0.00 | 0.00 | 0.00 | 40 | 1011.6 |
| 20260831142804 | 93 | 59 | 4.0 | 15.0 | 0.00 | 0.00 | 0.00 | 40 | 1011.6 |
| 20260831142704 | 93 | 60 | 14.0 | 15.0 | 0.00 | 0.00 | 0.00 | 41 | 1011.5 |
| 20260831142607 | 93 | 93 | 11.0 | 15.0 | 0.00 | 0.00 | 0.00 | 41 | 1011.6 |
| 20260831142404 | 93 | 74 | 11.0 | 15.0 | 0.00 | 0.00 | 0.00 | 40 | 1011.5 |
| 20260831142306 | 93 | 48 | 6.0 | 15.0 | 0.00 | 0.00 | 0.00 | 39 | 1011.5 |
| 20260831142104 | 93 | 28 | 6.0 | 17.0 | 0.00 | 0.00 | 0.00 | 41 | 1011.5 |
| 20260831142008 | 93 | 84 | 14.0 | 17.0 | 0.00 | 0.00 | 0.00 | 38 | 1011.5 |
| 20260831141904 | 93 | 28 | 10.0 | 17.0 | 0.00 | 0.00 | 0.00 | 38 | 1011.5 |
| 20260831141804 | 93 | 38 | 14.0 | 17.0 | 0.00 | 0.00 | 0.00 | 39 | 1011.5 |
| 20260831141706 | 93 | 51 | 6.0 | 17.0 | 0.00 | 0.00 | 0.00 | 38 | 1011.5 |
| 20260831141604 | 93 | 82 | 6.0 | 17.0 | 0.00 | 0.00 | 0.00 | 39 | 1011.5 |
| 20260831141506 | 93 | 37 | 5.0 | 17.0 | 0.00 | 0.00 | 0.00 | 38 | 1011.5 |
| 20260831141406 | 94 | 78 | 15.0 | 17.0 | 0.00 | 0.00 | 0.00 | 39 | 1011.5 |
| 20260831141304 | 94 | 86 | 7.0 | 17.0 | 0.00 | 0.00 | 0.00 | 38 | 1011.5 |
| 20260831141204 | 94 | 78 | 12.0 | 17.0 | 0.00 | 0.00 | 0.00 | 39 | 1011.4 |
| 20260831141107 | 94 | 68 | 12.0 | 16.0 | 0.00 | 0.00 | 0.00 | 40 | 1011.5 |
| 20260831141004 | 94 | 86 | 16.0 | 16.0 | 0.00 | 0.00 | 0.00 | 39 | 1011.4 |
| 20260831140903 | 94 | 32 | 8.0 | 13.0 | 0.00 | 0.00 | 0.00 | 38 | 1011.4 |
| 20260831140704 | 94 | 45 | 8.0 | 13.0 | 0.00 | 0.00 | 0.00 | 38 | 1011.4 |
| 20260831140603 | 94 | 50 | 9.0 | 13.0 | 0.00 | 0.00 | 0.00 | 37 | 1011.4 |
| 20260831140304 | 94 | 57 | 10.0 | 14.0 | 0.00 | 0.00 | 0.00 | 36 | 1011.5 |
| 20260831140206 | 95 | 74 | 3.0 | 14.0 | 0.00 | 0.00 | 0.00 | 37 | 1011.5 |
| 20260831140116 | 95 | 71 | 9.0 | 14.0 | 0.00 | 0.00 | 0.00 | 38 | 1011.5 |
| 20260831140007 | 95 | 80 | 11.0 | 14.0 | 0.00 | 0.00 | 0.00 | 38 | 1011.6 |
| 20260831135804 | 95 | 69 | 11.0 | 11.0 | 0.00 | 0.00 | 0.00 | 36 | 1011.5 |
| 20260831135704 | 95 | 37 | 7.0 | 11.0 | 0.00 | 0.00 | 0.00 | 36 | 1011.6 |
| 20260831135607 | 95 | 38 | 6.0 | 10.0 | 0.00 | 0.00 | 0.00 | 34 | 1011.5 |
| 20260831135504 | 95 | 32 | 8.0 | 10.0 | 0.00 | 0.00 | 0.00 | 33 | 1011.5 |
| 20260831135404 | 95 | 34 | 5.0 | 10.0 | 0.00 | 0.00 | 0.00 | 34 | 1011.6 |
| 20260831135307 | 95 | 329 | 3.0 | 10.0 | 0.00 | 0.00 | 0.00 | 33 | 1011.6 |
| 20260831135204 | 95 | 36 | 9.0 | 10.0 | 0.00 | 0.00 | 0.00 | 34 | 1011.6 |
| 20260831135103 | 95 | 30 | 8.0 | 10.0 | 0.00 | 0.00 | 0.00 | 35 | 1011.6 |
| 20260831135008 | 95 | 28 | 1.0 | 10.0 | 0.00 | 0.00 | 0.00 | 35 | 1011.6 |
| 20260831134903 | 95 | 314 | 2.0 | 10.0 | 0.00 | 0.00 | 0.00 | 33 | 1011.5 |
| 20260831134804 | 95 | 69 | 3.0 | 10.0 | 0.00 | 0.00 | 0.00 | 35 | 1011.5 |
| 20260831134706 | 95 | 81 | 5.0 | 10.0 | 0.00 | 0.00 | 0.00 | 34 | 1011.6 |
| 20260831134605 | 95 | 84 | 10.0 | 10.0 | 0.00 | 0.00 | 0.00 | 33 | 1011.6 |
| 20260831134504 | 95 | 115 | 1.0 | 7.0 | 0.00 | 0.00 | 0.00 | 33 | 1011.6 |
| 20260831134406 | 95 | 72 | 4.0 | 7.0 | 0.00 | 0.00 | 0.00 | 32 | 1011.6 |
| 20260831134304 | 95 | 30 | 1.0 | 7.0 | 0.00 | 0.00 | 0.00 | 33 | 1011.6 |
| 20260831134204 | 95 | 33 | 3.0 | 7.0 | 0.00 | 0.00 | 0.00 | 32 | 1011.6 |
| 20260831134106 | 95 | 326 | 2.0 | 6.0 | 0.00 | 0.00 | 0.00 | 33 | 1011.6 |
| 20260831134005 | 95 | 346 | 3.0 | 6.0 | 0.00 | 0.00 | 0.00 | 33 | 1011.7 |
| 20260831133904 | 95 | 342 | 3.0 | 8.0 | 0.00 | 0.00 | 0.00 | 33 | 1011.7 |
| 20260831133806 | 95 | 12 | 1.0 | 8.0 | 0.00 | 0.00 | 0.00 | 33 | 1011.7 |
| 20260831133705 | 95 | 347 | 4.0 | 8.0 | 0.00 | 0.00 | 0.00 | 33 | 1011.7 |
| 20260831133507 | 95 | 344 | 4.0 | 9.0 | 0.00 | 0.00 | 0.00 | 33 | 1011.7 |
| 20260831133404 | 95 | 329 | 2.0 | 9.0 | 0.00 | 0.00 | 0.00 | 33 | 1011.7 |
| 20260831133303 | 95 | 301 | 4.0 | 9.0 | 0.00 | 0.00 | 0.00 | 34 | 1011.7 |
| 20260831133206 | 95 | 32 | 4.0 | 9.0 | 0.00 | 0.00 | 0.00 | 32 | 1011.7 |
| 20260831133104 | 95 | 36 | 2.0 | 9.0 | 0.00 | 0.00 | 0.00 | 33 | 1011.7 |
| 20260831133008 | 95 | 36 | 6.0 | 9.0 | 0.00 | 0.00 | 0.00 | 34 | 1011.7 |
| 20260831132907 | 95 | 29 | 8.0 | 9.0 | 0.00 | 0.00 | 0.00 | 33 | 1011.7 |
| 20260831132804 | 95 | 30 | 4.0 | 9.0 | 0.00 | 0.00 | 0.00 | 32 | 1011.7 |
| 20260831132703 | 95 | 32 | 6.0 | 9.0 | 0.00 | 0.00 | 0.00 | 33 | 1011.7 |
| 20260831132607 | 95 | 35 | 6.0 | 9.0 | 0.00 | 0.00 | 0.00 | 31 | 1011.7 |
| 20260831132504 | 95 | 38 | 8.0 | 9.0 | 0.00 | 0.00 | 0.00 | 34 | 1011.8 |
| 20260831132404 | 95 | 43 | 7.0 | 9.0 | 0.00 | 0.00 | 0.00 | 32 | 1011.7 |
| 20260831132307 | 95 | 332 | 6.0 | 9.0 | 0.00 | 0.00 | 0.00 | 31 | 1011.8 |
| 20260831132204 | 95 | 34 | 5.0 | 9.0 | 0.00 | 0.00 | 0.00 | 32 | 1011.8 |
| 20260831132007 | 95 | 79 | 2.0 | 9.0 | 0.00 | 0.00 | 0.00 | 33 | 1011.8 |
| 20260831131904 | 95 | 5 | 1.0 | 9.0 | 0.00 | 0.00 | 0.00 | 35 | 1011.8 |
| 20260831131706 | 94 | 355 | 5.0 | 9.0 | 0.00 | 0.00 | 0.00 | 36 | 1011.8 |
| 20260831131604 | 94 | 34 | 9.0 | 9.0 | 0.00 | 0.00 | 0.00 | 34 | 1011.8 |
| 20260831131406 | 94 | 355 | 6.0 | 8.0 | 0.00 | 0.00 | 0.00 | 33 | 1011.8 |
| 20260831131305 | 94 | 272 | 3.0 | 8.0 | 0.00 | 0.00 | 0.00 | 33 | 1011.8 |
| 20260831131107 | 94 | 329 | 3.0 | 8.0 | 0.00 | 0.00 | 0.00 | 31 | 1011.9 |
| 20260831131006 | 94 | 161 | 1.0 | 8.0 | 0.00 | 0.00 | 0.00 | 32 | 1011.8 |
| 20260831130807 | 94 | 40 | 1.0 | 8.0 | 0.00 | 0.00 | 0.00 | 32 | 1011.9 |
| 20260831130703 | 94 | 344 | 4.0 | 8.0 | 0.00 | 0.00 | 0.00 | 35 | 1011.9 |
| 20260831130507 | 94 | 5 | 5.0 | 8.0 | 0.00 | 0.00 | 0.00 | 33 | 1011.8 |
| 20260831130405 | 94 | 41 | 6.0 | 8.0 | 0.00 | 0.00 | 0.00 | 34 | 1011.9 |
| 20260831130206 | 94 | 9 | 3.0 | 9.0 | 0.00 | 0.00 | 0.00 | 32 | 1011.9 |
| 20260831130008 | 94 | 13 | 2.0 | 9.0 | 0.00 | 0.00 | 0.00 | 34 | 1011.9 |
| 20260831125906 | 94 | 44 | 1.0 | 9.0 | 0.00 | 0.00 | 0.00 | 33 | 1011.9 |
| 20260831125803 | 94 | 44 | 2.0 | 9.0 | 0.00 | 0.00 | 0.00 | 34 | 1011.9 |
| 20260831125704 | 93 | 44 | 1.0 | 9.0 | 0.00 | 0.00 | 0.00 | 34 | 1011.9 |
| 20260831125606 | 93 | 44 | 1.0 | 9.0 | 0.00 | 0.00 | 0.00 | 34 | 1011.9 |
| 20260831125505 | 93 | 5 | 2.0 | 9.0 | 0.00 | 0.00 | 0.00 | 33 | 1011.9 |
| 20260831125404 | 93 | 32 | 2.0 | 9.0 | 0.00 | 0.00 | 0.00 | 34 | 1012.0 |
| 20260831125306 | 93 | 14 | 6.0 | 9.0 | 0.00 | 0.00 | 0.00 | 32 | 1012.0 |
| 20260831125203 | 93 | 54 | 2.0 | 11.0 | 0.00 | 0.00 | 0.00 | 32 | 1011.9 |
| 20260831125103 | 94 | 30 | 5.0 | 11.0 | 0.00 | 0.00 | 0.00 | 33 | 1011.9 |
| 20260831125008 | 94 | 24 | 5.0 | 11.0 | 0.00 | 0.00 | 0.00 | 32 | 1012.0 |
| 20260831124804 | 94 | 54 | 6.0 | 11.0 | 0.00 | 0.00 | 0.00 | 33 | 1012.0 |
| 20260831124707 | 94 | 35 | 6.0 | 11.0 | 0.00 | 0.00 | 0.00 | 32 | 1012.0 |
| 20260831124504 | 94 | 90 | 6.0 | 11.0 | 0.00 | 0.00 | 0.00 | 31 | 1012.0 |
| 20260831124407 | 94 | 61 | 9.0 | 11.0 | 0.00 | 0.00 | 0.00 | 33 | 1012.0 |
| 20260831124304 | 94 | 47 | 6.0 | 11.0 | 0.00 | 0.00 | 0.00 | 33 | 1012.0 |
| 20260831124204 | 94 | 42 | 10.0 | 10.0 | 0.00 | 0.00 | 0.00 | 32 | 1012.0 |
| 20260831124106 | 95 | 31 | 4.0 | 10.0 | 0.00 | 0.00 | 0.00 | 32 | 1012.1 |
| 20260831124004 | 95 | 27 | 9.0 | 10.0 | 0.00 | 0.00 | 0.00 | 32 | 1012.1 |
| 20260831123903 | 95 | 22 | 3.0 | 9.0 | 0.00 | 0.00 | 0.00 | 34 | 1012.1 |
| 20260831123807 | 94 | 338 | 4.0 | 9.0 | 0.00 | 0.00 | 0.00 | 36 | 1012.1 |
| 20260831123705 | 94 | 355 | 5.0 | 9.0 | 0.00 | 0.00 | 0.00 | 35 | 1012.1 |
| 20260831123604 | 94 | 315 | 7.0 | 9.0 | 0.00 | 0.00 | 0.00 | 33 | 1012.1 |
| 20260831123507 | 94 | 355 | 6.0 | 9.0 | 0.00 | 0.00 | 0.00 | 34 | 1012.1 |
| 20260831123403 | 94 | 342 | 9.0 | 9.0 | 0.00 | 0.00 | 0.00 | 32 | 1012.1 |
| 20260831123303 | 94 | 17 | 6.0 | 9.0 | 0.00 | 0.00 | 0.00 | 33 | 1012.2 |
| 20260831123206 | 94 | 348 | 8.0 | 9.0 | 0.00 | 0.00 | 0.00 | 36 | 1012.1 |
| 20260831123103 | 94 | 5 | 6.0 | 8.0 | 0.00 | 0.00 | 0.00 | 35 | 1012.1 |
| 20260831123005 | 94 | 317 | 5.0 | 10.0 | 0.00 | 0.00 | 0.00 | 33 | 1012.1 |
| 20260831122906 | 94 | 62 | 5.0 | 10.0 | 0.00 | 0.00 | 0.00 | 34 | 1012.1 |
| 20260831122804 | 93 | 31 | 8.0 | 10.0 | 0.00 | 0.00 | 0.00 | 34 | 1012.2 |
| 20260831122703 | 93 | 342 | 6.0 | 10.0 | 0.00 | 0.00 | 0.00 | 34 | 1012.2 |
| 20260831122606 | 93 | 19 | 5.0 | 10.0 | 0.00 | 0.00 | 0.00 | 34 | 1012.1 |
| 20260831122504 | 93 | 46 | 4.0 | 10.0 | 0.00 | 0.00 | 0.00 | 34 | 1012.2 |
| 20260831122403 | 93 | 292 | 4.0 | 10.0 | 0.00 | 0.00 | 0.00 | 34 | 1012.2 |
| 20260831122306 | 93 | 65 | 1.0 | 10.0 | 0.00 | 0.00 | 0.00 | 33 | 1012.1 |
| 20260831122203 | 93 | 84 | 3.0 | 10.0 | 0.00 | 0.00 | 0.00 | 33 | 1012.2 |
| 20260831122104 | 93 | 47 | 5.0 | 10.0 | 0.00 | 0.00 | 0.00 | 32 | 1012.2 |
| 20260831122007 | 93 | 31 | 8.0 | 9.0 | 0.00 | 0.00 | 0.00 | 32 | 1012.2 |
| 20260831121904 | 93 | 144 | 4.0 | 7.0 | 0.00 | 0.00 | 0.00 | 32 | 1012.2 |
| 20260831121803 | 93 | 360 | 1.0 | 10.0 | 0.00 | 0.00 | 0.00 | 34 | 1012.2 |
| 20260831121707 | 93 | 5 | 3.0 | 10.0 | 0.00 | 0.00 | 0.00 | 33 | 1012.2 |
| 20260831121604 | 93 | 67 | 4.0 | 10.0 | 0.00 | 0.00 | 0.00 | 34 | 1012.3 |
| 20260831121504 | 93 | 92 | 2.0 | 10.0 | 0.00 | 0.00 | 0.00 | 34 | 1012.2 |
| 20260831121406 | 93 | 92 | 3.0 | 10.0 | 0.00 | 0.00 | 0.00 | 35 | 1012.2 |
| 20260831121304 | 93 | 24 | 5.0 | 10.0 | 0.00 | 0.00 | 0.00 | 36 | 1012.3 |
| 20260831121204 | 93 | 80 | 5.0 | 10.0 | 0.00 | 0.00 | 0.00 | 33 | 1012.2 |
| 20260831121006 | 93 | 53 | 6.0 | 10.0 | 0.00 | 0.00 | 0.00 | 35 | 1012.3 |
| 20260831120903 | 93 | 77 | 5.0 | 10.0 | 0.00 | 0.00 | 0.00 | 33 | 1012.3 |
| 20260831120806 | 94 | 34 | 7.0 | 10.0 | 0.00 | 0.00 | 0.00 | 32 | 1012.2 |
| 20260831120604 | 94 | 37 | 7.0 | 10.0 | 0.00 | 0.00 | 0.00 | 37 | 1012.3 |
| 20260831120507 | 94 | 38 | 5.0 | 10.0 | 0.00 | 0.00 | 0.00 | 35 | 1012.3 |
| 20260831120404 | 93 | 355 | 3.0 | 12.0 | 0.00 | 0.00 | 0.00 | 35 | 1012.3 |
| 20260831120303 | 93 | 323 | 5.0 | 12.0 | 0.00 | 0.00 | 0.00 | 36 | 1012.3 |
| 20260831120207 | 93 | 313 | 5.0 | 12.0 | 0.00 | 0.00 | 0.00 | 37 | 1012.3 |
| 20260831120117 | 93 | 321 | 3.0 | 12.0 | 0.00 | 0.00 | 0.00 | 33 | 1012.3 |
| 20260831120007 | 93 | 21 | 5.0 | 12.0 | 0.00 | 0.00 | 0.00 | 33 | 1012.3 |
| 20260831115906 | 93 | 355 | 9.0 | 12.0 | 0.00 | 0.00 | 0.00 | 34 | 1012.3 |
| 20260831115804 | 93 | 17 | 4.0 | 12.0 | 0.00 | 0.00 | 0.00 | 33 | 1012.3 |
| 20260831115606 | 94 | 34 | 8.0 | 12.0 | 0.00 | 0.00 | 0.00 | 35 | 1012.3 |
| 20260831115504 | 94 | 24 | 7.0 | 12.0 | 0.00 | 0.00 | 0.00 | 33 | 1012.3 |
| 20260831115404 | 94 | 58 | 4.0 | 9.0 | 0.00 | 0.00 | 0.00 | 35 | 1012.3 |
| 20260831115306 | 94 | 19 | 3.0 | 9.0 | 0.00 | 0.00 | 0.00 | 36 | 1012.4 |
| 20260831115205 | 94 | 37 | 7.0 | 9.0 | 0.00 | 0.00 | 0.00 | 34 | 1012.3 |
| 20260831115104 | 94 | 37 | 9.0 | 9.0 | 0.00 | 0.00 | 0.00 | 35 | 1012.4 |
| 20260831114904 | 94 | 315 | 5.0 | 8.0 | 0.00 | 0.00 | 0.00 | 36 | 1012.3 |
| 20260831114804 | 94 | 9 | 3.0 | 9.0 | 0.00 | 0.00 | 0.00 | 36 | 1012.3 |
| 20260831114604 | 93 | 351 | 2.0 | 10.0 | 0.00 | 0.00 | 0.00 | 38 | 1012.3 |
| 20260831114504 | 93 | 351 | 3.0 | 10.0 | 0.00 | 0.00 | 0.00 | 36 | 1012.4 |
| 20260831114406 | 93 | 351 | 2.0 | 10.0 | 0.00 | 0.00 | 0.00 | 39 | 1012.4 |
| 20260831114303 | 93 | 329 | 4.0 | 10.0 | 0.00 | 0.00 | 0.00 | 35 | 1012.4 |
| 20260831114204 | 93 | 317 | 5.0 | 10.0 | 0.00 | 0.00 | 0.00 | 37 | 1012.4 |
| 20260831114107 | 93 | 38 | 1.0 | 10.0 | 0.00 | 0.00 | 0.00 | 38 | 1012.3 |
| 20260831114005 | 92 | 36 | 7.0 | 10.0 | 0.00 | 0.00 | 0.00 | 39 | 1012.4 |
| 20260831113904 | 92 | 26 | 6.0 | 10.0 | 0.00 | 0.00 | 0.00 | 36 | 1012.4 |
| 20260831113806 | 92 | 19 | 4.0 | 10.0 | 0.00 | 0.00 | 0.00 | 38 | 1012.4 |
| 20260831113704 | 92 | 38 | 6.0 | 9.0 | 0.00 | 0.00 | 0.00 | 37 | 1012.4 |
| 20260831113605 | 92 | 90 | 5.0 | 8.0 | 0.00 | 0.00 | 0.00 | 35 | 1012.5 |
| 20260831113507 | 92 | 73 | 0.0 | 8.0 | 0.00 | 0.00 | 0.00 | 36 | 1012.4 |
| 20260831113404 | 92 | 57 | 4.0 | 8.0 | 0.00 | 0.00 | 0.00 | 37 | 1012.5 |
| 20260831113304 | 92 | 50 | 5.0 | 8.0 | 0.00 | 0.00 | 0.00 | 35 | 1012.5 |
| 20260831113206 | 92 | 44 | 5.0 | 8.0 | 0.00 | 0.00 | 0.00 | 36 | 1012.5 |
| 20260831112907 | 92 | 47 | 0.0 | 8.0 | 0.00 | 0.00 | 0.00 | 36 | 1012.5 |
| 20260831112804 | 92 | 30 | 3.0 | 8.0 | 0.00 | 0.00 | 0.00 | 35 | 1012.5 |
| 20260831112607 | 92 | 34 | 6.0 | 7.0 | 0.00 | 0.00 | 0.00 | 39 | 1012.5 |
| 20260831112504 | 92 | 24 | 5.0 | 7.0 | 0.00 | 0.00 | 0.00 | 38 | 1012.6 |
| 20260831112404 | 92 | 343 | 1.0 | 5.0 | 0.00 | 0.00 | 0.00 | 38 | 1012.5 |
| 20260831112309 | 92 | 35 | 3.0 | 8.0 | 0.00 | 0.00 | 0.00 | 39 | 1012.6 |
| 20260831112103 | 91 | 355 | 2.0 | 10.0 | 0.00 | 0.00 | 0.00 | 36 | 1012.5 |
| 20260831112007 | 91 | 343 | 1.0 | 10.0 | 0.00 | 0.00 | 0.00 | 38 | 1012.6 |
| 20260831111903 | 91 | 288 | 1.0 | 10.0 | 0.00 | 0.00 | 0.00 | 36 | 1012.6 |
| 20260831111803 | 92 | 288 | 2.0 | 10.0 | 0.00 | 0.00 | 0.00 | 36 | 1012.6 |
| 20260831111706 | 92 | 281 | 1.0 | 10.0 | 0.00 | 0.00 | 0.00 | 36 | 1012.6 |
| 20260831111504 | 92 | 288 | 1.0 | 10.0 | 0.00 | 0.00 | 0.00 | 38 | 1012.6 |
| 20260831111204 | 92 | 281 | 4.0 | 10.0 | 0.00 | 0.00 | 0.00 | 39 | 1012.6 |
| 20260831111106 | 92 | 320 | 8.0 | 10.0 | 0.00 | 0.00 | 0.00 | 41 | 1012.6 |
| 20260831111005 | 91 | 360 | 5.0 | 9.0 | 0.00 | 0.00 | 0.00 | 41 | 1012.6 |
| 20260831110904 | 91 | 320 | 7.0 | 9.0 | 0.00 | 0.00 | 0.00 | 40 | 1012.6 |
| 20260831110806 | 91 | 348 | 6.0 | 9.0 | 0.00 | 0.00 | 0.00 | 40 | 1012.6 |
| 20260831110704 | 91 | 55 | 2.0 | 9.0 | 0.00 | 0.00 | 0.00 | 39 | 1012.6 |
| 20260831110507 | 91 | 10 | 4.0 | 9.0 | 0.00 | 0.00 | 0.00 | 39 | 1012.7 |
| 20260831110404 | 90 | 360 | 3.0 | 9.0 | 0.00 | 0.00 | 0.00 | 41 | 1012.7 |
| 20260831110303 | 90 | 5 | 2.0 | 9.0 | 0.00 | 0.00 | 0.00 | 41 | 1012.7 |
| 20260831110207 | 90 | 11 | 7.0 | 9.0 | 0.00 | 0.00 | 0.00 | 38 | 1012.7 |
| 20260831110104 | 90 | 327 | 6.0 | 7.0 | 0.00 | 0.00 | 0.00 | 38 | 1012.6 |
| 20260831110007 | 90 | 236 | 2.0 | 7.0 | 0.00 | 0.00 | 0.00 | 38 | 1012.7 |
| 20260831105906 | 90 | 339 | 1.0 | 9.0 | 0.00 | 0.00 | 0.00 | 40 | 1012.7 |
| 20260831105704 | 90 | 360 | 3.0 | 9.0 | 0.00 | 0.00 | 0.00 | 38 | 1012.7 |
| 20260831105606 | 91 | 342 | 3.0 | 9.0 | 0.00 | 0.00 | 0.00 | 39 | 1012.7 |
| 20260831105505 | 91 | 305 | 2.0 | 9.0 | 0.00 | 0.00 | 0.00 | 38 | 1012.8 |
| 20260831105308 | 91 | 290 | 5.0 | 9.0 | 0.00 | 0.00 | 0.00 | 37 | 1012.7 |
| 20260831105204 | 91 | 284 | 3.0 | 9.0 | 0.00 | 0.00 | 0.00 | 40 | 1012.8 |
| 20260831105104 | 91 | 348 | 5.0 | 9.0 | 0.00 | 0.00 | 0.00 | 37 | 1012.7 |
| 20260831105008 | 91 | 348 | 5.0 | 9.0 | 0.00 | 0.00 | 0.00 | 42 | 1012.8 |
| 20260831104905 | 91 | 360 | 6.0 | 9.0 | 0.00 | 0.00 | 0.00 | 41 | 1012.7 |
| 20260831104804 | 91 | 355 | 2.0 | 6.0 | 0.00 | 0.00 | 0.00 | 40 | 1012.7 |
| 20260831104707 | 91 | 321 | 1.0 | 6.0 | 0.00 | 0.00 | 0.00 | 39 | 1012.8 |
| 20260831104604 | 91 | 338 | 5.0 | 6.0 | 0.00 | 0.00 | 0.00 | 41 | 1012.8 |
| 20260831104504 | 91 | 5 | 2.0 | 5.0 | 0.00 | 0.00 | 0.00 | 39 | 1012.8 |
| 20260831104407 | 91 | 92 | 0.0 | 5.0 | 0.00 | 0.00 | 0.00 | 38 | 1012.8 |
| 20260831104304 | 91 | 321 | 1.0 | 7.0 | 0.00 | 0.00 | 0.00 | 38 | 1012.8 |
| 20260831104203 | 91 | 321 | 1.0 | 9.0 | 0.00 | 0.00 | 0.00 | 37 | 1012.8 |
| 20260831104108 | 91 | 321 | 2.0 | 9.0 | 0.00 | 0.00 | 0.00 | 42 | 1012.8 |
| 20260831103905 | 90 | 22 | 3.0 | 9.0 | 0.00 | 0.00 | 0.00 | 38 | 1012.8 |
| 20260831103807 | 90 | 161 | 0.0 | 9.0 | 0.00 | 0.00 | 0.00 | 37 | 1012.9 |
| 20260831103703 | 90 | 161 | 2.0 | 9.0 | 0.00 | 0.00 | 0.00 | 40 | 1012.9 |
| 20260831103603 | 90 | 34 | 2.0 | 9.0 | 0.00 | 0.00 | 0.00 | 40 | 1012.9 |
| 20260831103403 | 90 | 355 | 3.0 | 9.0 | 0.00 | 0.00 | 0.00 | 43 | 1012.9 |
| 20260831103305 | 90 | 346 | 5.0 | 9.0 | 0.00 | 0.00 | 0.00 | 43 | 1012.9 |
| 20260831103206 | 90 | 332 | 6.0 | 8.0 | 0.00 | 0.00 | 0.00 | 41 | 1012.9 |
| 20260831103103 | 90 | 29 | 2.0 | 8.0 | 0.00 | 0.00 | 0.00 | 39 | 1012.9 |
| 20260831103005 | 90 | 29 | 1.0 | 8.0 | 0.00 | 0.00 | 0.00 | 41 | 1012.9 |